Wetterdaten: Dienstag, 01.10.2019
Datum Zeit Temp. Aussen Temp. o. S. +5cm Feuchte Auss Luftdruck Regen Sonnenschein Regendauer Solar Windben Empfang
01.10.2019 00:00 14,8 C 13,9 C 18,3 C 88 % 1010,1 hPa 0,0 l/m 0 min 0 min 0 W/m 6,4 km/h (2 Bft) 93,62 %
01.10.2019 00:02 14,8 C 13,9 C 18,3 C 88 % 1010,1 hPa 0,0 l/m 0 min 0 min 0 W/m 6,4 km/h (2 Bft) 95,65 %
01.10.2019 00:04 14,8 C 13,9 C 18,3 C 88 % 1010,1 hPa 0,0 l/m 0 min 0 min 0 W/m 12,9 km/h (3 Bft) 95,65 %
01.10.2019 00:08 14,8 C 13,9 C 18,3 C 88 % 1010,0 hPa 0,0 l/m 0 min 0 min 0 W/m 12,9 km/h (3 Bft) 96,81 %
01.10.2019 00:10 14,8 C 13,9 C 18,3 C 88 % 1010,0 hPa 0,0 l/m 0 min 0 min 0 W/m 12,9 km/h (3 Bft) 95,74 %
01.10.2019 00:12 14,8 C 13,9 C 18,3 C 88 % 1010,0 hPa 0,0 l/m 0 min 0 min 0 W/m 19,3 km/h (3 Bft) 97,87 %
01.10.2019 00:14 14,8 C 13,9 C 18,3 C 88 % 1010,0 hPa 0,0 l/m 0 min 0 min 0 W/m 16,1 km/h (3 Bft) 97,87 %
01.10.2019 00:16 14,8 C 13,9 C 18,3 C 88 % 1009,9 hPa 0,0 l/m 0 min 0 min 0 W/m 19,3 km/h (3 Bft) 93,48 %
01.10.2019 00:18 14,8 C 13,9 C 18,3 C 88 % 1009,9 hPa 0,0 l/m 0 min 2 min 0 W/m 12,9 km/h (3 Bft) 93,62 %
01.10.2019 00:20 14,8 C 13,9 C 18,3 C 88 % 1009,9 hPa 0,0 l/m 0 min 2 min 0 W/m 6,4 km/h (2 Bft) 95,74 %
01.10.2019 00:22 14,8 C 13,9 C 18,3 C 88 % 1009,9 hPa 0,0 l/m 0 min 2 min 0 W/m 12,9 km/h (3 Bft) 93,62 %
01.10.2019 00:24 14,8 C 13,3 C 18,3 C 88 % 1009,8 hPa 0,0 l/m 0 min 0 min 0 W/m 12,9 km/h (3 Bft) 95,74 %
01.10.2019 00:26 14,8 C 13,3 C 18,3 C 88 % 1009,8 hPa 0,0 l/m 0 min 2 min 0 W/m 6,4 km/h (2 Bft) 95,74 %
01.10.2019 00:28 14,8 C 13,3 C 18,3 C 88 % 1009,7 hPa 0,0 l/m 0 min 2 min 0 W/m 6,4 km/h (2 Bft) 93,48 %
01.10.2019 00:30 14,8 C 12,8 C 18,3 C 88 % 1009,6 hPa 0,0 l/m 0 min 2 min 0 W/m 12,9 km/h (3 Bft) 95,74 %
01.10.2019 00:32 14,8 C 12,8 C 18,3 C 89 % 1009,6 hPa 0,0 l/m 0 min 2 min 0 W/m 12,9 km/h (3 Bft) 93,62 %
01.10.2019 00:34 14,8 C 12,8 C 18,3 C 89 % 1009,6 hPa 0,0 l/m 0 min 2 min 0 W/m 6,4 km/h (2 Bft) 93,62 %
01.10.2019 00:36 14,8 C 12,8 C 18,3 C 89 % 1009,5 hPa 0,0 l/m 0 min 2 min 0 W/m 6,4 km/h (2 Bft) 95,74 %
01.10.2019 00:38 14,8 C 12,8 C 18,3 C 89 % 1009,5 hPa 0,0 l/m 0 min 2 min 0 W/m 6,4 km/h (2 Bft) 95,74 %
01.10.2019 00:40 14,8 C 12,8 C 18,3 C 89 % 1009,5 hPa 0,0 l/m 0 min 0 min 0 W/m 6,4 km/h (2 Bft) 95,65 %
01.10.2019 00:42 14,7 C 12,8 C 18,3 C 89 % 1009,4 hPa 0,0 l/m 0 min 2 min 0 W/m 6,4 km/h (2 Bft) 97,87 %
01.10.2019 00:44 14,7 C 12,8 C 18,3 C 89 % 1009,3 hPa 0,0 l/m 0 min 2 min 0 W/m 6,4 km/h (2 Bft) 95,74 %
01.10.2019 00:46 14,7 C 12,8 C 18,3 C 89 % 1009,3 hPa 0,0 l/m 0 min 0 min 0 W/m 6,4 km/h (2 Bft) 97,87 %
01.10.2019 00:48 14,7 C 12,8 C 18,3 C 89 % 1009,2 hPa 0,0 l/m 0 min 0 min 0 W/m 12,9 km/h (3 Bft) 97,87 %
01.10.2019 00:50 14,7 C 12,8 C 18,3 C 89 % 1009,1 hPa 0,0 l/m 0 min 0 min 0 W/m 6,4 km/h (2 Bft) 97,87 %
01.10.2019 00:52 14,7 C 12,8 C 18,3 C 89 % 1009,0 hPa 0,0 l/m 0 min 0 min 0 W/m 6,4 km/h (2 Bft) 97,83 %
01.10.2019 00:54 14,6 C 12,8 C 18,3 C 89 % 1009,0 hPa 0,0 l/m 0 min 0 min 0 W/m 12,9 km/h (3 Bft) 95,74 %
01.10.2019 00:56 14,6 C 12,8 C 18,3 C 90 % 1009,0 hPa 0,0 l/m 0 min 2 min 0 W/m 12,9 km/h (3 Bft) 97,87 %
01.10.2019 00:58 14,6 C 12,8 C 18,3 C 90 % 1009,0 hPa 0,0 l/m 0 min 0 min 0 W/m 12,9 km/h (3 Bft) 97,87 %
01.10.2019 01:00 14,6 C 12,8 C 18,3 C 90 % 1009,0 hPa 0,0 l/m 0 min 0 min 0 W/m 6,4 km/h (2 Bft) 95,74 %
01.10.2019 01:02 14,6 C 12,8 C 18,3 C 90 % 1008,9 hPa 0,0 l/m 0 min 0 min 0 W/m 12,9 km/h (3 Bft) 93,48 %
01.10.2019 01:04 14,5 C 12,8 C 18,3 C 90 % 1008,9 hPa 0,0 l/m 0 min 0 min 0 W/m 12,9 km/h (3 Bft) 95,74 %
01.10.2019 01:06 14,5 C 12,8 C 18,3 C 90 % 1008,9 hPa 0,0 l/m 0 min 0 min 0 W/m 12,9 km/h (3 Bft) 100,00 %
01.10.2019 01:08 14,4 C 13,3 C 18,3 C 90 % 1008,9 hPa 0,0 l/m 0 min 0 min 0 W/m 12,9 km/h (3 Bft) 100,00 %
01.10.2019 01:10 14,4 C 13,3 C 18,3 C 90 % 1008,8 hPa 0,0 l/m 0 min 0 min 0 W/m 12,9 km/h (3 Bft) 100,00 %
01.10.2019 01:12 14,4 C 13,3 C 18,3 C 90 % 1008,8 hPa 0,0 l/m 0 min 0 min 0 W/m 12,9 km/h (3 Bft) 100,00 %
01.10.2019 01:14 14,4 C 13,3 C 18,3 C 90 % 1008,7 hPa 0,0 l/m 0 min 0 min 0 W/m 16,1 km/h (3 Bft) 100,00 %
01.10.2019 01:16 14,4 C 13,3 C 18,3 C 90 % 1008,7 hPa 0,0 l/m 0 min 0 min 0 W/m 16,1 km/h (3 Bft) 100,00 %
01.10.2019 01:18 14,3 C 13,3 C 18,3 C 90 % 1008,7 hPa 0,0 l/m 0 min 0 min 0 W/m 12,9 km/h (3 Bft) 100,00 %
01.10.2019 01:20 14,3 C 13,3 C 18,3 C 90 % 1008,6 hPa 0,0 l/m 0 min 0 min 0 W/m 19,3 km/h (3 Bft) 100,00 %
01.10.2019 01:22 14,3 C 13,3 C 18,3 C 90 % 1008,6 hPa 0,0 l/m 0 min 0 min 0 W/m 12,9 km/h (3 Bft) 100,00 %
01.10.2019 01:24 14,3 C 13,3 C 18,3 C 90 % 1008,6 hPa 0,0 l/m 0 min 0 min 0 W/m 16,1 km/h (3 Bft) 97,87 %
01.10.2019 01:26 14,3 C 13,3 C 18,3 C 90 % 1008,5 hPa 0,0 l/m 0 min 0 min 0 W/m 12,9 km/h (3 Bft) 100,00 %
01.10.2019 01:28 14,2 C 13,9 C 18,3 C 90 % 1008,6 hPa 0,0 l/m 0 min 0 min 0 W/m 12,9 km/h (3 Bft) 100,00 %
01.10.2019 01:30 14,2 C 13,9 C 18,3 C 90 % 1008,7 hPa 0,0 l/m 0 min 0 min 0 W/m 22,5 km/h (4 Bft) 97,87 %
01.10.2019 01:32 14,2 C 13,9 C 18,3 C 90 % 1008,7 hPa 0,0 l/m 0 min 0 min 0 W/m 12,9 km/h (3 Bft) 100,00 %
01.10.2019 01:34 14,2 C 13,9 C 18,3 C 90 % 1008,6 hPa 0,0 l/m 0 min 0 min 0 W/m 6,4 km/h (2 Bft) 100,00 %
01.10.2019 01:36 14,2 C 13,9 C 18,3 C 90 % 1008,4 hPa 0,0 l/m 0 min 0 min 0 W/m 6,4 km/h (2 Bft) 100,00 %
01.10.2019 01:38 14,2 C 13,9 C 18,3 C 90 % 1008,4 hPa 0,0 l/m 0 min 0 min 0 W/m 12,9 km/h (3 Bft) 100,00 %
01.10.2019 01:40 14,2 C 13,9 C 18,3 C 90 % 1008,2 hPa 0,0 l/m 0 min 0 min 0 W/m 6,4 km/h (2 Bft) 100,00 %
01.10.2019 01:42 14,2 C 13,9 C 18,3 C 90 % 1008,2 hPa 0,0 l/m 0 min 0 min 0 W/m 12,9 km/h (3 Bft) 100,00 %
01.10.2019 01:44 14,2 C 13,9 C 18,3 C 90 % 1008,1 hPa 0,0 l/m 0 min 0 min 0 W/m 12,9 km/h (3 Bft) 100,00 %
01.10.2019 01:46 14,2 C 13,9 C 18,3 C 90 % 1008,2 hPa 0,0 l/m 0 min 0 min 0 W/m 12,9 km/h (3 Bft) 100,00 %
01.10.2019 01:48 14,2 C 13,3 C 18,3 C 90 % 1008,2 hPa 0,0 l/m 0 min 2 min 0 W/m 12,9 km/h (3 Bft) 100,00 %
01.10.2019 01:50 14,2 C 12,8 C 18,3 C 90 % 1008,2 hPa 0,2 l/m 0 min 2 min 0 W/m 12,9 km/h (3 Bft) 100,00 %
01.10.2019 01:52 14,2 C 12,8 C 18,3 C 90 % 1008,2 hPa 0,0 l/m 0 min 2 min 0 W/m 6,4 km/h (2 Bft) 100,00 %
01.10.2019 01:54 14,2 C 12,8 C 18,3 C 90 % 1008,2 hPa 0,0 l/m 0 min 2 min 0 W/m 12,9 km/h (3 Bft) 100,00 %
01.10.2019 01:56 14,2 C 12,2 C 18,3 C 90 % 1008,2 hPa 0,0 l/m 0 min 2 min 0 W/m 6,4 km/h (2 Bft) 100,00 %
01.10.2019 01:58 14,2 C 12,2 C 18,3 C 90 % 1008,1 hPa 0,0 l/m 0 min 2 min 0 W/m 6,4 km/h (2 Bft) 100,00 %
01.10.2019 02:00 14,2 C 12,2 C 18,3 C 90 % 1008,1 hPa 0,0 l/m 0 min 2 min 0 W/m 6,4 km/h (2 Bft) 97,83 %
01.10.2019 02:02 14,2 C 12,2 C 18,3 C 90 % 1008,1 hPa 0,0 l/m 0 min 2 min 0 W/m 12,9 km/h (3 Bft) 97,87 %
01.10.2019 02:04 14,2 C 12,2 C 18,3 C 90 % 1008,1 hPa 0,0 l/m 0 min 2 min 0 W/m 12,9 km/h (3 Bft) 100,00 %
01.10.2019 02:06 14,2 C 12,2 C 18,3 C 90 % 1008,0 hPa 0,2 l/m 0 min 2 min 0 W/m 12,9 km/h (3 Bft) 100,00 %
01.10.2019 02:08 14,2 C 12,2 C 18,3 C 90 % 1008,1 hPa 0,0 l/m 0 min 2 min 0 W/m 16,1 km/h (3 Bft) 100,00 %
01.10.2019 02:10 14,2 C 12,2 C 18,3 C 91 % 1008,0 hPa 0,0 l/m 0 min 2 min 0 W/m 6,4 km/h (2 Bft) 100,00 %
01.10.2019 02:12 14,2 C 12,2 C 18,3 C 91 % 1007,9 hPa 0,0 l/m 0 min 2 min 0 W/m 6,4 km/h (2 Bft) 100,00 %
01.10.2019 02:14 14,2 C 12,2 C 18,3 C 91 % 1007,8 hPa 0,2 l/m 0 min 2 min 0 W/m 6,4 km/h (2 Bft) 100,00 %
01.10.2019 02:16 14,2 C 12,2 C 18,3 C 91 % 1007,8 hPa 0,0 l/m 0 min 2 min 0 W/m 6,4 km/h (2 Bft) 100,00 %
01.10.2019 02:18 14,2 C 12,2 C 18,3 C 91 % 1007,7 hPa 0,2 l/m 0 min 2 min 0 W/m 16,1 km/h (3 Bft) 100,00 %
01.10.2019 02:20 14,2 C 11,7 C 18,3 C 91 % 1007,6 hPa 0,0 l/m 0 min 2 min 0 W/m 6,4 km/h (2 Bft) 100,00 %
01.10.2019 02:22 14,2 C 11,7 C 18,3 C 91 % 1007,5 hPa 0,0 l/m 0 min 2 min 0 W/m 12,9 km/h (3 Bft) 100,00 %
01.10.2019 02:24 14,2 C 11,7 C 18,3 C 91 % 1007,5 hPa 0,0 l/m 0 min 2 min 0 W/m 16,1 km/h (3 Bft) 100,00 %
01.10.2019 02:26 14,2 C 11,7 C 18,3 C 91 % 1007,5 hPa 0,2 l/m 0 min 2 min 0 W/m 16,1 km/h (3 Bft) 100,00 %
01.10.2019 02:28 14,2 C 11,7 C 18,3 C 92 % 1007,5 hPa 0,2 l/m 0 min 2 min 0 W/m 12,9 km/h (3 Bft) 100,00 %
01.10.2019 02:30 14,2 C 11,7 C 18,3 C 92 % 1007,3 hPa 0,2 l/m 0 min 2 min 0 W/m 16,1 km/h (3 Bft) 100,00 %
01.10.2019 02:32 14,2 C 11,7 C 18,3 C 92 % 1007,2 hPa 0,0 l/m 0 min 2 min 0 W/m 19,3 km/h (3 Bft) 100,00 %
01.10.2019 02:34 14,2 C 11,7 C 18,3 C 92 % 1007,1 hPa 0,2 l/m 0 min 2 min 0 W/m 12,9 km/h (3 Bft) 97,87 %
01.10.2019 02:36 14,1 C 11,7 C 18,3 C 92 % 1007,0 hPa 0,0 l/m 0 min 2 min 0 W/m 22,5 km/h (4 Bft) 95,65 %
01.10.2019 02:38 14,1 C 11,7 C 18,3 C 92 % 1007,1 hPa 0,2 l/m 0 min 2 min 0 W/m 16,1 km/h (3 Bft) 97,87 %
01.10.2019 02:40 14,0 C 11,7 C 18,3 C 92 % 1007,0 hPa 0,0 l/m 0 min 2 min 0 W/m 16,1 km/h (3 Bft) 97,87 %
01.10.2019 02:42 13,9 C 11,7 C 18,3 C 93 % 1007,0 hPa 0,0 l/m 0 min 2 min 0 W/m 16,1 km/h (3 Bft) 95,74 %
01.10.2019 02:44 13,9 C 11,7 C 18,3 C 93 % 1006,9 hPa 0,2 l/m 0 min 2 min 0 W/m 22,5 km/h (4 Bft) 95,74 %
01.10.2019 02:46 13,9 C 11,7 C 18,3 C 93 % 1006,9 hPa 0,0 l/m 0 min 2 min 0 W/m 19,3 km/h (3 Bft) 93,62 %
01.10.2019 02:48 13,8 C 11,7 C 18,3 C 93 % 1006,8 hPa 0,0 l/m 0 min 0 min 0 W/m 19,3 km/h (3 Bft) 91,30 %
01.10.2019 02:50 13,8 C 11,7 C 18,3 C 93 % 1006,7 hPa 0,0 l/m 0 min 0 min 0 W/m 12,9 km/h (3 Bft) 95,74 %
01.10.2019 02:52 13,8 C 11,7 C 18,3 C 94 % 1006,6 hPa 0,0 l/m 0 min 0 min 0 W/m 12,9 km/h (3 Bft) 93,62 %
01.10.2019 02:54 13,8 C 11,7 C 18,3 C 93 % 1006,6 hPa 0,0 l/m 0 min 0 min 0 W/m 12,9 km/h (3 Bft) 95,74 %
01.10.2019 02:56 13,7 C 11,7 C 18,3 C 94 % 1006,6 hPa 0,0 l/m 0 min 0 min 0 W/m 12,9 km/h (3 Bft) 93,62 %
01.10.2019 02:58 13,7 C 11,7 C 18,3 C 94 % 1006,6 hPa 0,0 l/m 0 min 2 min 0 W/m 12,9 km/h (3 Bft) 91,49 %
01.10.2019 03:00 13,7 C 12,2 C 18,3 C 94 % 1006,5 hPa 0,0 l/m 0 min 0 min 0 W/m 12,9 km/h (3 Bft) 95,65 %
01.10.2019 03:02 13,7 C 12,2 C 18,3 C 94 % 1006,5 hPa 0,0 l/m 0 min 0 min 0 W/m 12,9 km/h (3 Bft) 93,62 %
01.10.2019 03:04 13,6 C 12,2 C 18,3 C 94 % 1006,5 hPa 0,0 l/m 0 min 0 min 0 W/m 16,1 km/h (3 Bft) 93,62 %
01.10.2019 03:06 13,6 C 12,2 C 18,3 C 94 % 1006,5 hPa 0,0 l/m 0 min 2 min 0 W/m 12,9 km/h (3 Bft) 91,49 %
01.10.2019 03:08 13,6 C 12,2 C 18,3 C 94 % 1006,5 hPa 0,0 l/m 0 min 2 min 0 W/m 19,3 km/h (3 Bft) 93,62 %
01.10.2019 03:10 13,6 C 12,2 C 18,3 C 95 % 1006,4 hPa 0,2 l/m 0 min 2 min 0 W/m 16,1 km/h (3 Bft) 93,62 %
01.10.2019 03:12 13,6 C 12,2 C 18,3 C 95 % 1006,3 hPa 0,0 l/m 0 min 2 min 0 W/m 6,4 km/h (2 Bft) 93,48 %
01.10.2019 03:14 13,6 C 12,2 C 18,3 C 95 % 1006,2 hPa 0,0 l/m 0 min 2 min 0 W/m 12,9 km/h (3 Bft) 91,49 %
01.10.2019 03:16 13,5 C 12,2 C 18,3 C 95 % 1006,2 hPa 0,0 l/m 0 min 2 min 0 W/m 12,9 km/h (3 Bft) 93,62 %
01.10.2019 03:18 13,5 C 12,2 C 18,3 C 95 % 1006,2 hPa 0,2 l/m 0 min 2 min 0 W/m 12,9 km/h (3 Bft) 91,49 %
01.10.2019 03:20 13,5 C 12,2 C 18,3 C 95 % 1006,1 hPa 0,0 l/m 0 min 2 min 0 W/m 16,1 km/h (3 Bft) 93,62 %
01.10.2019 03:22 13,5 C 11,7 C 18,3 C 95 % 1006,1 hPa 0,0 l/m 0 min 0 min 0 W/m 22,5 km/h (4 Bft) 93,48 %
01.10.2019 03:24 13,4 C 11,7 C 18,3 C 95 % 1006,0 hPa 0,0 l/m 0 min 2 min 0 W/m 19,3 km/h (3 Bft) 93,62 %
01.10.2019 03:26 13,4 C 11,7 C 18,3 C 95 % 1006,0 hPa 0,0 l/m 0 min 0 min 0 W/m 19,3 km/h (3 Bft) 93,62 %
01.10.2019 03:28 13,4 C 11,7 C 18,3 C 95 % 1006,0 hPa 0,0 l/m 0 min 0 min 0 W/m 19,3 km/h (3 Bft) 95,74 %
01.10.2019 03:30 13,4 C 11,7 C 18,3 C 96 % 1005,9 hPa 0,2 l/m 0 min 2 min 0 W/m 22,5 km/h (4 Bft) 89,36 %
01.10.2019 03:32 13,4 C 11,7 C 18,3 C 96 % 1005,8 hPa 0,0 l/m 0 min 2 min 0 W/m 16,1 km/h (3 Bft) 95,74 %
01.10.2019 03:34 13,3 C 11,7 C 18,3 C 96 % 1005,7 hPa 0,2 l/m 0 min 2 min 0 W/m 19,3 km/h (3 Bft) 93,48 %
01.10.2019 03:36 13,3 C 11,7 C 18,3 C 96 % 1005,7 hPa 0,0 l/m 0 min 2 min 0 W/m 16,1 km/h (3 Bft) 97,87 %
01.10.2019 03:38 13,3 C 11,7 C 18,3 C 96 % 1005,6 hPa 0,2 l/m 0 min 2 min 0 W/m 12,9 km/h (3 Bft) 97,87 %
01.10.2019 03:40 13,3 C 11,7 C 18,3 C 96 % 1005,6 hPa 0,0 l/m 0 min 2 min 0 W/m 19,3 km/h (3 Bft) 97,87 %
01.10.2019 03:42 13,3 C 11,7 C 18,3 C 96 % 1005,5 hPa 0,2 l/m 0 min 2 min 0 W/m 19,3 km/h (3 Bft) 95,74 %
01.10.2019 03:44 13,3 C 11,7 C 18,3 C 96 % 1005,5 hPa 0,0 l/m 0 min 0 min 0 W/m 19,3 km/h (3 Bft) 95,74 %
01.10.2019 03:46 13,3 C 11,7 C 18,3 C 96 % 1005,4 hPa 0,0 l/m 0 min 0 min 0 W/m 22,5 km/h (4 Bft) 95,65 %
01.10.2019 03:48 13,2 C 11,7 C 18,3 C 96 % 1005,4 hPa 0,0 l/m 0 min 0 min 0 W/m 12,9 km/h (3 Bft) 97,87 %
01.10.2019 03:50 13,2 C 11,7 C 18,3 C 96 % 1005,3 hPa 0,0 l/m 0 min 0 min 0 W/m 19,3 km/h (3 Bft) 97,87 %
01.10.2019 03:52 13,2 C 11,7 C 18,3 C 96 % 1005,2 hPa 0,0 l/m 0 min 0 min 0 W/m 16,1 km/h (3 Bft) 95,74 %
01.10.2019 03:54 13,2 C 12,2 C 18,3 C 96 % 1005,2 hPa 0,0 l/m 0 min 0 min 0 W/m 16,1 km/h (3 Bft) 100,00 %
01.10.2019 03:56 13,2 C 12,2 C 18,3 C 97 % 1005,1 hPa 0,0 l/m 0 min 0 min 0 W/m 19,3 km/h (3 Bft) 97,87 %
01.10.2019 03:58 13,2 C 12,2 C 18,3 C 97 % 1005,1 hPa 0,0 l/m 0 min 0 min 0 W/m 19,3 km/h (3 Bft) 100,00 %
01.10.2019 04:00 13,2 C 12,2 C 18,3 C 97 % 1005,0 hPa 0,0 l/m 0 min 0 min 0 W/m 19,3 km/h (3 Bft) 100,00 %
01.10.2019 04:02 13,2 C 12,2 C 18,3 C 97 % 1005,0 hPa 0,0 l/m 0 min 0 min 0 W/m 12,9 km/h (3 Bft) 100,00 %
01.10.2019 04:04 13,2 C 12,2 C 18,3 C 97 % 1004,9 hPa 0,0 l/m 0 min 0 min 0 W/m 12,9 km/h (3 Bft) 100,00 %
01.10.2019 04:06 13,2 C 12,2 C 18,3 C 97 % 1004,9 hPa 0,0 l/m 0 min 0 min 0 W/m 22,5 km/h (4 Bft) 100,00 %
01.10.2019 04:08 13,2 C 12,2 C 18,3 C 97 % 1004,8 hPa 0,0 l/m 0 min 0 min 0 W/m 16,1 km/h (3 Bft) 100,00 %
01.10.2019 04:10 13,2 C 12,2 C 18,3 C 97 % 1004,8 hPa 0,0 l/m 0 min 0 min 0 W/m 22,5 km/h (4 Bft) 100,00 %
01.10.2019 04:12 13,2 C 12,2 C 18,3 C 97 % 1004,8 hPa 0,0 l/m 0 min 0 min 0 W/m 19,3 km/h (3 Bft) 100,00 %
01.10.2019 04:14 13,2 C 12,2 C 18,3 C 97 % 1004,7 hPa 0,0 l/m 0 min 2 min 0 W/m 22,5 km/h (4 Bft) 100,00 %
01.10.2019 04:16 13,2 C 12,2 C 18,3 C 97 % 1004,7 hPa 0,2 l/m 0 min 2 min 0 W/m 32,2 km/h (5 Bft) 100,00 %
01.10.2019 04:18 13,2 C 12,2 C 18,3 C 97 % 1004,7 hPa 0,0 l/m 0 min 2 min 0 W/m 29,0 km/h (5 Bft) 100,00 %
01.10.2019 04:20 13,2 C 12,2 C 18,3 C 97 % 1004,6 hPa 0,0 l/m 0 min 0 min 0 W/m 12,9 km/h (3 Bft) 100,00 %
01.10.2019 04:22 13,2 C 12,2 C 18,3 C 97 % 1004,6 hPa 0,0 l/m 0 min 2 min 0 W/m 19,3 km/h (3 Bft) 100,00 %
01.10.2019 04:24 13,2 C 12,2 C 18,3 C 97 % 1004,6 hPa 0,0 l/m 0 min 0 min 0 W/m 9,7 km/h (2 Bft) 100,00 %
01.10.2019 04:26 13,2 C 12,2 C 18,3 C 98 % 1004,6 hPa 0,0 l/m 0 min 0 min 0 W/m 19,3 km/h (3 Bft) 100,00 %
01.10.2019 04:28 13,2 C 12,2 C 18,3 C 98 % 1004,6 hPa 0,0 l/m 0 min 0 min 0 W/m 35,4 km/h (5 Bft) 97,87 %
01.10.2019 04:30 13,2 C 12,2 C 18,3 C 98 % 1004,5 hPa 0,0 l/m 0 min 0 min 0 W/m 16,1 km/h (3 Bft) 100,00 %
01.10.2019 04:32 13,3 C 12,2 C 18,3 C 98 % 1004,5 hPa 0,0 l/m 0 min 0 min 0 W/m 19,3 km/h (3 Bft) 95,65 %
01.10.2019 04:34 13,3 C 12,2 C 18,3 C 98 % 1004,5 hPa 0,0 l/m 0 min 0 min 0 W/m 19,3 km/h (3 Bft) 100,00 %
01.10.2019 04:36 13,3 C 12,2 C 18,3 C 98 % 1004,5 hPa 0,0 l/m 0 min 0 min 0 W/m 12,9 km/h (3 Bft) 100,00 %
01.10.2019 04:38 13,3 C 12,2 C 18,3 C 98 % 1004,4 hPa 0,0 l/m 0 min 0 min 0 W/m 22,5 km/h (4 Bft) 100,00 %
01.10.2019 04:40 13,3 C 12,2 C 18,3 C 98 % 1004,3 hPa 0,0 l/m 0 min 0 min 0 W/m 12,9 km/h (3 Bft) 100,00 %
01.10.2019 04:42 13,3 C 12,2 C 18,3 C 98 % 1004,2 hPa 0,0 l/m 0 min 0 min 0 W/m 16,1 km/h (3 Bft) 100,00 %
01.10.2019 04:44 13,3 C 12,2 C 18,3 C 98 % 1004,2 hPa 0,0 l/m 0 min 0 min 0 W/m 19,3 km/h (3 Bft) 100,00 %
01.10.2019 04:46 13,3 C 12,2 C 18,3 C 98 % 1004,2 hPa 0,0 l/m 0 min 0 min 0 W/m 16,1 km/h (3 Bft) 97,83 %
01.10.2019 04:48 13,4 C 12,2 C 18,3 C 98 % 1004,2 hPa 0,0 l/m 0 min 0 min 0 W/m 16,1 km/h (3 Bft) 97,87 %
01.10.2019 04:50 13,4 C 12,2 C 18,3 C 98 % 1004,1 hPa 0,0 l/m 0 min 0 min 0 W/m 6,4 km/h (2 Bft) 100,00 %
01.10.2019 04:52 13,4 C 12,2 C 18,3 C 98 % 1004,1 hPa 0,0 l/m 0 min 0 min 0 W/m 12,9 km/h (3 Bft) 100,00 %
01.10.2019 04:54 13,4 C 12,8 C 18,3 C 98 % 1004,2 hPa 0,0 l/m 0 min 0 min 0 W/m 16,1 km/h (3 Bft) 100,00 %
01.10.2019 04:56 13,4 C 12,8 C 18,3 C 98 % 1004,1 hPa 0,0 l/m 0 min 0 min 0 W/m 16,1 km/h (3 Bft) 100,00 %
01.10.2019 04:58 13,4 C 12,8 C 18,3 C 98 % 1004,1 hPa 0,0 l/m 0 min 0 min 0 W/m 12,9 km/h (3 Bft) 100,00 %
01.10.2019 05:00 13,4 C 12,8 C 18,3 C 98 % 1004,0 hPa 0,0 l/m 0 min 0 min 0 W/m 12,9 km/h (3 Bft) 100,00 %
01.10.2019 05:02 13,4 C 12,8 C 18,3 C 98 % 1004,1 hPa 0,0 l/m 0 min 0 min 0 W/m 19,3 km/h (3 Bft) 100,00 %
01.10.2019 05:04 13,4 C 12,8 C 18,3 C 98 % 1003,9 hPa 0,0 l/m 0 min 0 min 0 W/m 19,3 km/h (3 Bft) 100,00 %
01.10.2019 05:06 13,5 C 12,8 C 18,3 C 98 % 1003,9 hPa 0,0 l/m 0 min 0 min 0 W/m 19,3 km/h (3 Bft) 100,00 %
01.10.2019 05:08 13,5 C 12,8 C 18,3 C 98 % 1003,8 hPa 0,0 l/m 0 min 0 min 0 W/m 25,7 km/h (4 Bft) 100,00 %
01.10.2019 05:10 13,5 C 12,8 C 18,3 C 98 % 1003,8 hPa 0,0 l/m 0 min 0 min 0 W/m 12,9 km/h (3 Bft) 100,00 %
01.10.2019 05:12 13,6 C 12,8 C 18,3 C 98 % 1003,9 hPa 0,0 l/m 0 min 0 min 0 W/m 12,9 km/h (3 Bft) 100,00 %
01.10.2019 05:14 13,6 C 12,8 C 18,3 C 98 % 1003,8 hPa 0,0 l/m 0 min 0 min 0 W/m 16,1 km/h (3 Bft) 100,00 %
01.10.2019 05:16 13,6 C 12,8 C 18,3 C 98 % 1003,8 hPa 0,0 l/m 0 min 2 min 0 W/m 12,9 km/h (3 Bft) 100,00 %
01.10.2019 05:18 13,6 C 12,8 C 18,3 C 98 % 1003,8 hPa 0,0 l/m 0 min 2 min 0 W/m 6,4 km/h (2 Bft) 100,00 %
01.10.2019 05:20 13,6 C 12,8 C 18,3 C 98 % 1003,7 hPa 0,0 l/m 0 min 2 min 0 W/m 12,9 km/h (3 Bft) 100,00 %
01.10.2019 05:22 13,6 C 12,8 C 18,3 C 98 % 1003,7 hPa 0,2 l/m 0 min 2 min 0 W/m 12,9 km/h (3 Bft) 97,87 %
01.10.2019 05:24 13,6 C 12,8 C 18,3 C 98 % 1003,7 hPa 0,0 l/m 0 min 2 min 0 W/m 12,9 km/h (3 Bft) 97,87 %
01.10.2019 05:26 13,6 C 12,8 C 18,3 C 98 % 1003,6 hPa 0,2 l/m 0 min 2 min 0 W/m 6,4 km/h (2 Bft) 97,87 %
01.10.2019 05:28 13,6 C 12,8 C 18,3 C 98 % 1003,6 hPa 0,0 l/m 0 min 2 min 0 W/m 12,9 km/h (3 Bft) 100,00 %
01.10.2019 05:30 13,7 C 12,8 C 18,3 C 98 % 1003,6 hPa 0,0 l/m 0 min 2 min 0 W/m 16,1 km/h (3 Bft) 97,87 %
01.10.2019 05:32 13,7 C 12,8 C 18,3 C 98 % 1003,6 hPa 0,0 l/m 0 min 0 min 0 W/m 22,5 km/h (4 Bft) 97,83 %
01.10.2019 05:34 13,7 C 12,8 C 18,3 C 98 % 1003,5 hPa 0,0 l/m 0 min 0 min 0 W/m 19,3 km/h (3 Bft) 95,74 %
01.10.2019 05:36 13,7 C 12,8 C 18,3 C 99 % 1003,5 hPa 0,0 l/m 0 min 0 min 0 W/m 12,9 km/h (3 Bft) 95,74 %
01.10.2019 05:38 13,8 C 12,8 C 18,3 C 99 % 1003,5 hPa 0,0 l/m 0 min 0 min 0 W/m 12,9 km/h (3 Bft) 97,87 %
01.10.2019 05:40 13,8 C 12,8 C 18,3 C 99 % 1003,5 hPa 0,0 l/m 0 min 2 min 0 W/m 12,9 km/h (3 Bft) 95,74 %
01.10.2019 05:42 13,8 C 12,8 C 18,3 C 99 % 1003,5 hPa 0,2 l/m 0 min 0 min 0 W/m 35,4 km/h (5 Bft) 95,74 %
01.10.2019 05:44 13,8 C 12,8 C 18,3 C 99 % 1003,4 hPa 0,0 l/m 0 min 0 min 0 W/m 22,5 km/h (4 Bft) 95,65 %
01.10.2019 05:46 13,9 C 12,8 C 18,3 C 99 % 1003,4 hPa 0,0 l/m 0 min 0 min 0 W/m 22,5 km/h (4 Bft) 97,87 %
01.10.2019 05:48 13,9 C 12,8 C 18,3 C 99 % 1003,3 hPa 0,0 l/m 0 min 0 min 0 W/m 12,9 km/h (3 Bft) 97,87 %
01.10.2019 05:50 13,9 C 12,8 C 18,3 C 99 % 1003,3 hPa 0,0 l/m 0 min 0 min 0 W/m 16,1 km/h (3 Bft) 95,74 %
01.10.2019 05:52 13,9 C 12,8 C 18,3 C 99 % 1003,3 hPa 0,0 l/m 0 min 0 min 0 W/m 12,9 km/h (3 Bft) 91,49 %
01.10.2019 05:54 13,9 C 12,8 C 18,3 C 99 % 1003,3 hPa 0,0 l/m 0 min 0 min 0 W/m 22,5 km/h (4 Bft) 97,87 %
01.10.2019 05:56 14,0 C 12,8 C 18,3 C 99 % 1003,2 hPa 0,0 l/m 0 min 0 min 0 W/m 19,3 km/h (3 Bft) 95,65 %
01.10.2019 05:58 14,0 C 12,8 C 18,3 C 99 % 1003,1 hPa 0,0 l/m 0 min 0 min 0 W/m 22,5 km/h (4 Bft) 95,74 %
01.10.2019 06:00 14,1 C 12,8 C 18,3 C 99 % 1003,1 hPa 0,0 l/m 0 min 0 min 0 W/m 22,5 km/h (4 Bft) 91,49 %
01.10.2019 06:02 14,1 C 12,8 C 18,3 C 99 % 1003,1 hPa 0,0 l/m 0 min 0 min 0 W/m 19,3 km/h (3 Bft) 93,62 %
01.10.2019 06:04 14,1 C 12,8 C 18,3 C 99 % 1003,1 hPa 0,0 l/m 0 min 0 min 0 W/m 16,1 km/h (3 Bft) 95,74 %
01.10.2019 06:08 14,2 C 13,3 C 18,3 C 99 % 1003,0 hPa 0,0 l/m 0 min 0 min 0 W/m 29,0 km/h (5 Bft) 94,62 %
01.10.2019 06:10 14,2 C 13,3 C 18,3 C 99 % 1003,0 hPa 0,0 l/m 0 min 0 min 0 W/m 25,7 km/h (4 Bft) 95,74 %
01.10.2019 06:12 14,2 C 13,3 C 18,3 C 99 % 1003,0 hPa 0,0 l/m 0 min 0 min 0 W/m 19,3 km/h (3 Bft) 93,62 %
01.10.2019 06:14 14,2 C 13,3 C 18,3 C 99 % 1002,9 hPa 0,0 l/m 0 min 0 min 0 W/m 22,5 km/h (4 Bft) 95,74 %
01.10.2019 06:16 14,2 C 13,3 C 18,3 C 99 % 1002,9 hPa 0,0 l/m 0 min 0 min 0 W/m 19,3 km/h (3 Bft) 95,74 %
01.10.2019 06:18 14,2 C 13,3 C 18,3 C 99 % 1002,9 hPa 0,0 l/m 0 min 0 min 0 W/m 16,1 km/h (3 Bft) 95,65 %
01.10.2019 06:20 14,2 C 13,3 C 18,3 C 99 % 1002,8 hPa 0,0 l/m 0 min 0 min 0 W/m 25,7 km/h (4 Bft) 95,74 %
01.10.2019 06:22 14,2 C 13,3 C 18,3 C 99 % 1002,9 hPa 0,0 l/m 0 min 0 min 0 W/m 29,0 km/h (5 Bft) 95,74 %
01.10.2019 06:24 14,2 C 13,3 C 18,3 C 99 % 1002,8 hPa 0,0 l/m 0 min 0 min 0 W/m 19,3 km/h (3 Bft) 95,74 %
01.10.2019 06:26 14,2 C 13,3 C 18,3 C 99 % 1002,8 hPa 0,0 l/m 0 min 0 min 0 W/m 25,7 km/h (4 Bft) 97,87 %
01.10.2019 06:28 14,2 C 13,3 C 18,3 C 99 % 1002,7 hPa 0,0 l/m 0 min 0 min 0 W/m 35,4 km/h (5 Bft) 95,74 %
01.10.2019 06:30 14,2 C 13,3 C 18,3 C 99 % 1002,8 hPa 0,0 l/m 0 min 0 min 0 W/m 22,5 km/h (4 Bft) 95,65 %
01.10.2019 06:32 14,3 C 13,3 C 18,3 C 99 % 1002,6 hPa 0,0 l/m 0 min 0 min 0 W/m 19,3 km/h (3 Bft) 93,62 %
01.10.2019 06:34 14,3 C 13,3 C 18,3 C 99 % 1002,6 hPa 0,0 l/m 0 min 0 min 0 W/m 22,5 km/h (4 Bft) 95,74 %
01.10.2019 06:36 14,3 C 13,3 C 18,3 C 99 % 1002,6 hPa 0,0 l/m 0 min 0 min 0 W/m 25,7 km/h (4 Bft) 93,62 %
01.10.2019 06:38 14,3 C 13,3 C 18,3 C 99 % 1002,5 hPa 0,0 l/m 0 min 0 min 0 W/m 16,1 km/h (3 Bft) 95,74 %
01.10.2019 06:40 14,4 C 13,3 C 18,3 C 99 % 1002,6 hPa 0,0 l/m 0 min 0 min 0 W/m 19,3 km/h (3 Bft) 95,74 %
01.10.2019 06:42 14,4 C 13,9 C 18,3 C 99 % 1002,7 hPa 0,0 l/m 0 min 0 min 0 W/m 22,5 km/h (4 Bft) 95,65 %
01.10.2019 06:44 14,4 C 13,9 C 18,3 C 99 % 1002,6 hPa 0,0 l/m 0 min 0 min 0 W/m 19,3 km/h (3 Bft) 95,74 %
01.10.2019 06:46 14,4 C 13,9 C 18,3 C 99 % 1002,6 hPa 0,0 l/m 0 min 0 min 0 W/m 19,3 km/h (3 Bft) 95,74 %
01.10.2019 06:48 14,4 C 13,9 C 18,3 C 99 % 1002,6 hPa 0,0 l/m 0 min 0 min 0 W/m 22,5 km/h (4 Bft) 95,74 %
01.10.2019 06:50 14,4 C 13,9 C 18,3 C 99 % 1002,6 hPa 0,0 l/m 0 min 0 min 0 W/m 22,5 km/h (4 Bft) 95,74 %
01.10.2019 06:52 14,4 C 13,9 C 18,3 C 99 % 1002,5 hPa 0,0 l/m 0 min 0 min 0 W/m 19,3 km/h (3 Bft) 97,87 %
01.10.2019 06:54 14,4 C 13,9 C 18,3 C 99 % 1002,6 hPa 0,0 l/m 0 min 0 min 0 W/m 22,5 km/h (4 Bft) 97,83 %
01.10.2019 06:56 14,4 C 13,9 C 18,3 C 99 % 1002,5 hPa 0,0 l/m 0 min 0 min 0 W/m 35,4 km/h (5 Bft) 95,74 %
01.10.2019 06:58 14,5 C 13,9 C 18,3 C 99 % 1002,5 hPa 0,0 l/m 0 min 0 min 0 W/m 25,7 km/h (4 Bft) 97,87 %
01.10.2019 07:00 14,5 C 13,9 C 18,3 C 99 % 1002,5 hPa 0,0 l/m 0 min 0 min 0 W/m 22,5 km/h (4 Bft) 100,00 %
01.10.2019 07:02 14,5 C 13,9 C 18,3 C 99 % 1002,5 hPa 0,0 l/m 0 min 0 min 0 W/m 19,3 km/h (3 Bft) 100,00 %
01.10.2019 07:04 14,5 C 13,9 C 18,3 C 99 % 1002,5 hPa 0,0 l/m 0 min 0 min 0 W/m 22,5 km/h (4 Bft) 97,87 %
01.10.2019 07:06 14,5 C 13,9 C 18,3 C 99 % 1002,6 hPa 0,0 l/m 0 min 0 min 0 W/m 35,4 km/h (5 Bft) 97,83 %
01.10.2019 07:08 14,6 C 13,9 C 18,3 C 99 % 1002,4 hPa 0,0 l/m 0 min 0 min 0 W/m 25,7 km/h (4 Bft) 100,00 %
01.10.2019 07:10 14,6 C 13,9 C 18,3 C 99 % 1002,3 hPa 0,0 l/m 0 min 0 min 0 W/m 22,5 km/h (4 Bft) 100,00 %
01.10.2019 07:12 14,6 C 13,9 C 18,3 C 99 % 1002,3 hPa 0,0 l/m 0 min 0 min 0 W/m 19,3 km/h (3 Bft) 97,87 %
01.10.2019 07:14 14,6 C 13,9 C 18,3 C 99 % 1002,3 hPa 0,0 l/m 0 min 0 min 0 W/m 16,1 km/h (3 Bft) 100,00 %
01.10.2019 07:16 14,6 C 13,9 C 18,3 C 99 % 1002,3 hPa 0,0 l/m 0 min 0 min 0 W/m 19,3 km/h (3 Bft) 100,00 %
01.10.2019 07:18 14,6 C 13,9 C 18,3 C 99 % 1002,3 hPa 0,0 l/m 0 min 0 min 0 W/m 35,4 km/h (5 Bft) 100,00 %
01.10.2019 07:20 14,6 C 13,9 C 18,3 C 99 % 1002,3 hPa 0,0 l/m 0 min 0 min 0 W/m 25,7 km/h (4 Bft) 97,87 %
01.10.2019 07:22 14,6 C 13,9 C 18,3 C 99 % 1002,3 hPa 0,0 l/m 0 min 0 min 0 W/m 25,7 km/h (4 Bft) 100,00 %
01.10.2019 07:24 14,6 C 13,9 C 18,3 C 99 % 1002,3 hPa 0,0 l/m 0 min 0 min 0 W/m 19,3 km/h (3 Bft) 100,00 %
01.10.2019 07:26 14,6 C 13,9 C 18,3 C 99 % 1002,2 hPa 0,0 l/m 0 min 0 min 0 W/m 22,5 km/h (4 Bft) 100,00 %
01.10.2019 07:28 14,7 C 13,9 C 18,3 C 99 % 1002,2 hPa 0,0 l/m 0 min 0 min 0 W/m 19,3 km/h (3 Bft) 100,00 %
01.10.2019 07:30 14,7 C 13,9 C 18,3 C 99 % 1002,1 hPa 0,0 l/m 0 min 0 min 0 W/m 22,5 km/h (4 Bft) 100,00 %
01.10.2019 07:32 14,7 C 13,9 C 18,3 C 99 % 1002,1 hPa 0,0 l/m 0 min 0 min 0 W/m 32,2 km/h (5 Bft) 100,00 %
01.10.2019 07:34 14,7 C 13,9 C 18,3 C 99 % 1002,1 hPa 0,0 l/m 0 min 0 min 0 W/m 25,7 km/h (4 Bft) 100,00 %
01.10.2019 07:36 14,7 C 13,9 C 18,3 C 99 % 1002,1 hPa 0,0 l/m 0 min 0 min 0 W/m 22,5 km/h (4 Bft) 100,00 %
01.10.2019 07:38 14,7 C 13,9 C 18,3 C 99 % 1002,1 hPa 0,0 l/m 0 min 0 min 0 W/m 22,5 km/h (4 Bft) 100,00 %
01.10.2019 07:40 14,7 C 13,9 C 18,3 C 99 % 1002,1 hPa 0,0 l/m 0 min 0 min 0 W/m 29,0 km/h (5 Bft) 100,00 %
01.10.2019 07:42 14,7 C 13,9 C 18,3 C 99 % 1002,0 hPa 0,0 l/m 0 min 0 min 0 W/m 22,5 km/h (4 Bft) 100,00 %
01.10.2019 07:44 14,7 C 13,9 C 18,3 C 99 % 1002,0 hPa 0,0 l/m 0 min 0 min 0 W/m 19,3 km/h (3 Bft) 100,00 %
01.10.2019 07:46 14,8 C 13,9 C 18,3 C 99 % 1001,9 hPa 0,0 l/m 0 min 0 min 0 W/m 25,7 km/h (4 Bft) 100,00 %
01.10.2019 07:48 14,7 C 13,9 C 18,3 C 99 % 1001,8 hPa 0,0 l/m 0 min 0 min 1 W/m 32,2 km/h (5 Bft) 100,00 %
01.10.2019 07:50 14,8 C 13,9 C 18,3 C 99 % 1001,8 hPa 0,0 l/m 0 min 0 min 5 W/m 19,3 km/h (3 Bft) 100,00 %
01.10.2019 07:52 14,8 C 13,9 C 18,3 C 99 % 1001,8 hPa 0,0 l/m 0 min 0 min 6 W/m 22,5 km/h (4 Bft) 100,00 %
01.10.2019 07:54 14,8 C 13,9 C 18,3 C 99 % 1001,7 hPa 0,0 l/m 0 min 0 min 7 W/m 19,3 km/h (3 Bft) 97,87 %
01.10.2019 07:56 14,8 C 13,9 C 18,3 C 99 % 1001,7 hPa 0,0 l/m 0 min 0 min 7 W/m 16,1 km/h (3 Bft) 95,74 %
01.10.2019 07:58 14,8 C 13,9 C 18,3 C 99 % 1001,7 hPa 0,0 l/m 0 min 0 min 7 W/m 22,5 km/h (4 Bft) 97,87 %
01.10.2019 08:00 14,8 C 13,9 C 18,3 C 99 % 1001,7 hPa 0,0 l/m 0 min 0 min 8 W/m 19,3 km/h (3 Bft) 93,62 %
01.10.2019 08:02 14,8 C 13,9 C 18,3 C 99 % 1001,5 hPa 0,0 l/m 0 min 0 min 9 W/m 22,5 km/h (4 Bft) 97,87 %
01.10.2019 08:04 14,8 C 13,9 C 18,3 C 99 % 1001,5 hPa 0,0 l/m 0 min 0 min 10 W/m 19,3 km/h (3 Bft) 97,83 %
01.10.2019 08:06 14,8 C 13,9 C 18,3 C 99 % 1001,6 hPa 0,0 l/m 0 min 0 min 12 W/m 22,5 km/h (4 Bft) 97,87 %
01.10.2019 08:08 14,8 C 13,9 C 18,3 C 99 % 1001,6 hPa 0,0 l/m 0 min 0 min 15 W/m 22,5 km/h (4 Bft) 97,87 %
01.10.2019 08:10 14,8 C 13,9 C 18,3 C 99 % 1001,6 hPa 0,0 l/m 0 min 0 min 24 W/m 16,1 km/h (3 Bft) 95,74 %
01.10.2019 08:12 14,8 C 14,4 C 18,3 C 99 % 1001,7 hPa 0,0 l/m 0 min 0 min 38 W/m 32,2 km/h (5 Bft) 97,87 %
01.10.2019 08:14 14,8 C 14,4 C 18,3 C 99 % 1001,7 hPa 0,0 l/m 0 min 0 min 40 W/m 25,7 km/h (4 Bft) 97,87 %
01.10.2019 08:16 14,8 C 14,4 C 18,3 C 99 % 1001,8 hPa 0,0 l/m 0 min 0 min 33 W/m 25,7 km/h (4 Bft) 97,83 %
01.10.2019 08:18 14,9 C 14,4 C 18,3 C 99 % 1001,8 hPa 0,0 l/m 0 min 0 min 29 W/m 22,5 km/h (4 Bft) 97,87 %
01.10.2019 08:20 14,9 C 14,4 C 18,3 C 99 % 1001,8 hPa 0,0 l/m 0 min 0 min 27 W/m 25,7 km/h (4 Bft) 97,87 %
01.10.2019 08:22 14,9 C 14,4 C 18,3 C 99 % 1001,8 hPa 0,0 l/m 0 min 0 min 28 W/m 16,1 km/h (3 Bft) 97,87 %
01.10.2019 08:24 14,9 C 14,4 C 18,3 C 99 % 1001,8 hPa 0,0 l/m 0 min 0 min 28 W/m 25,7 km/h (4 Bft) 97,87 %
01.10.2019 08:26 15,0 C 15,0 C 18,3 C 99 % 1001,8 hPa 0,0 l/m 0 min 0 min 22 W/m 22,5 km/h (4 Bft) 97,83 %
01.10.2019 08:28 15,0 C 15,0 C 18,3 C 99 % 1001,7 hPa 0,0 l/m 0 min 0 min 18 W/m 29,0 km/h (5 Bft) 95,74 %
01.10.2019 08:30 15,0 C 15,0 C 18,3 C 98 % 1001,7 hPa 0,0 l/m 0 min 0 min 19 W/m 32,2 km/h (5 Bft) 97,87 %
01.10.2019 08:32 15,1 C 15,0 C 18,3 C 98 % 1001,7 hPa 0,0 l/m 0 min 0 min 20 W/m 32,2 km/h (5 Bft) 95,74 %
01.10.2019 08:34 15,1 C 15,0 C 18,3 C 98 % 1001,6 hPa 0,0 l/m 0 min 0 min 23 W/m 16,1 km/h (3 Bft) 95,74 %
01.10.2019 08:36 15,1 C 15,0 C 18,3 C 98 % 1001,7 hPa 0,0 l/m 0 min 0 min 18 W/m 22,5 km/h (4 Bft) 97,87 %
01.10.2019 08:38 15,2 C 15,0 C 18,3 C 98 % 1001,7 hPa 0,0 l/m 0 min 0 min 23 W/m 29,0 km/h (5 Bft) 97,83 %
01.10.2019 08:40 15,2 C 15,0 C 18,3 C 98 % 1001,5 hPa 0,0 l/m 0 min 0 min 36 W/m 25,7 km/h (4 Bft) 97,87 %
01.10.2019 08:42 15,2 C 15,0 C 18,3 C 98 % 1001,5 hPa 0,0 l/m 0 min 0 min 43 W/m 22,5 km/h (4 Bft) 100,00 %
01.10.2019 08:44 15,2 C 15,6 C 18,3 C 98 % 1001,4 hPa 0,0 l/m 0 min 0 min 49 W/m 32,2 km/h (5 Bft) 100,00 %
01.10.2019 08:46 15,2 C 15,6 C 18,3 C 98 % 1001,4 hPa 0,0 l/m 0 min 0 min 43 W/m 29,0 km/h (5 Bft) 97,87 %
01.10.2019 08:48 15,3 C 15,6 C 18,3 C 98 % 1001,3 hPa 0,0 l/m 0 min 0 min 42 W/m 19,3 km/h (3 Bft) 95,74 %
01.10.2019 08:50 15,3 C 15,6 C 18,3 C 98 % 1001,3 hPa 0,0 l/m 0 min 0 min 46 W/m 25,7 km/h (4 Bft) 100,00 %
01.10.2019 08:52 15,3 C 15,6 C 18,3 C 98 % 1001,3 hPa 0,0 l/m 0 min 0 min 52 W/m 29,0 km/h (5 Bft) 100,00 %
01.10.2019 08:54 15,4 C 15,6 C 18,3 C 98 % 1001,3 hPa 0,0 l/m 0 min 0 min 58 W/m 22,5 km/h (4 Bft) 100,00 %
01.10.2019 08:56 15,4 C 15,6 C 18,3 C 98 % 1001,2 hPa 0,0 l/m 0 min 0 min 47 W/m 29,0 km/h (5 Bft) 97,87 %
01.10.2019 08:58 15,4 C 15,6 C 18,3 C 98 % 1001,3 hPa 0,0 l/m 0 min 0 min 42 W/m 22,5 km/h (4 Bft) 97,87 %
01.10.2019 09:00 15,5 C 15,6 C 18,3 C 98 % 1001,2 hPa 0,0 l/m 0 min 0 min 33 W/m 22,5 km/h (4 Bft) 100,00 %
01.10.2019 09:02 15,5 C 15,6 C 18,3 C 98 % 1001,2 hPa 0,0 l/m 0 min 0 min 29 W/m 19,3 km/h (3 Bft) 100,00 %
01.10.2019 09:04 15,6 C 15,6 C 18,3 C 98 % 1001,2 hPa 0,0 l/m 0 min 0 min 26 W/m 19,3 km/h (3 Bft) 97,87 %
01.10.2019 09:06 15,6 C 15,6 C 18,3 C 98 % 1001,0 hPa 0,0 l/m 0 min 0 min 27 W/m 22,5 km/h (4 Bft) 97,87 %
01.10.2019 09:08 15,6 C 15,6 C 18,3 C 97 % 1001,0 hPa 0,0 l/m 0 min 0 min 30 W/m 19,3 km/h (3 Bft) 97,87 %
01.10.2019 09:10 15,6 C 15,6 C 18,3 C 97 % 1001,0 hPa 0,0 l/m 0 min 0 min 26 W/m 22,5 km/h (4 Bft) 97,87 %
01.10.2019 09:12 15,6 C 15,6 C 18,3 C 97 % 1001,0 hPa 0,0 l/m 0 min 0 min 13 W/m 22,5 km/h (4 Bft) 93,62 %
01.10.2019 09:14 15,7 C 15,6 C 18,3 C 97 % 1001,0 hPa 0,0 l/m 0 min 0 min 8 W/m 29,0 km/h (5 Bft) 95,65 %
01.10.2019 09:16 15,7 C 15,0 C 18,3 C 97 % 1001,2 hPa 0,0 l/m 0 min 2 min 8 W/m 22,5 km/h (4 Bft) 93,62 %
01.10.2019 09:18 15,7 C 14,4 C 18,3 C 97 % 1001,2 hPa 0,4 l/m 0 min 2 min 7 W/m 22,5 km/h (4 Bft) 93,62 %
01.10.2019 09:20 15,7 C 13,9 C 18,3 C 97 % 1001,4 hPa 0,2 l/m 0 min 2 min 1 W/m 25,7 km/h (4 Bft) 95,74 %
01.10.2019 09:22 15,8 C 13,9 C 18,3 C 97 % 1001,6 hPa 0,2 l/m 0 min 2 min 0 W/m 35,4 km/h (5 Bft) 97,87 %
01.10.2019 09:24 15,8 C 13,9 C 18,3 C 97 % 1001,8 hPa 0,4 l/m 0 min 2 min 0 W/m 25,7 km/h (4 Bft) 93,48 %
01.10.2019 09:26 15,8 C 13,9 C 18,3 C 97 % 1001,9 hPa 0,6 l/m 0 min 2 min 0 W/m 12,9 km/h (3 Bft) 95,74 %
01.10.2019 09:28 15,8 C 13,9 C 18,3 C 97 % 1001,9 hPa 2,0 l/m 0 min 2 min 7 W/m 16,1 km/h (3 Bft) 95,74 %
01.10.2019 09:30 15,8 C 13,9 C 18,3 C 97 % 1001,8 hPa 0,6 l/m 0 min 2 min 11 W/m 22,5 km/h (4 Bft) 95,74 %
01.10.2019 09:32 15,7 C 13,9 C 18,3 C 97 % 1001,8 hPa 0,2 l/m 0 min 2 min 14 W/m 16,1 km/h (3 Bft) 95,74 %
01.10.2019 09:34 15,7 C 14,4 C 18,3 C 97 % 1001,6 hPa 0,0 l/m 0 min 2 min 18 W/m 29,0 km/h (5 Bft) 95,74 %
01.10.2019 09:36 15,7 C 14,4 C 18,3 C 97 % 1001,7 hPa 0,2 l/m 0 min 2 min 17 W/m 25,7 km/h (4 Bft) 95,65 %
01.10.2019 09:38 15,7 C 14,4 C 18,3 C 97 % 1001,9 hPa 0,2 l/m 0 min 2 min 31 W/m 25,7 km/h (4 Bft) 93,62 %
01.10.2019 09:40 15,7 C 14,4 C 18,3 C 97 % 1001,8 hPa 0,2 l/m 0 min 2 min 39 W/m 16,1 km/h (3 Bft) 95,74 %
01.10.2019 09:42 15,7 C 14,4 C 18,3 C 97 % 1001,8 hPa 0,0 l/m 0 min 2 min 29 W/m 16,1 km/h (3 Bft) 93,62 %
01.10.2019 09:44 15,7 C 14,4 C 18,3 C 97 % 1001,8 hPa 0,0 l/m 0 min 2 min 26 W/m 29,0 km/h (5 Bft) 95,74 %
01.10.2019 09:46 15,7 C 14,4 C 18,3 C 97 % 1001,8 hPa 0,2 l/m 0 min 2 min 26 W/m 29,0 km/h (5 Bft) 95,74 %
01.10.2019 09:48 15,6 C 14,4 C 18,3 C 97 % 1001,7 hPa 0,2 l/m 0 min 2 min 33 W/m 16,1 km/h (3 Bft) 95,65 %
01.10.2019 09:50 15,6 C 14,4 C 18,3 C 97 % 1001,8 hPa 0,0 l/m 0 min 2 min 49 W/m 16,1 km/h (3 Bft) 93,62 %
01.10.2019 09:52 15,6 C 14,4 C 18,3 C 97 % 1001,8 hPa 0,2 l/m 0 min 2 min 69 W/m 19,3 km/h (3 Bft) 95,74 %
01.10.2019 09:54 15,6 C 14,4 C 18,3 C 97 % 1001,8 hPa 0,0 l/m 0 min 2 min 79 W/m 25,7 km/h (4 Bft) 95,74 %
01.10.2019 09:56 15,6 C 14,4 C 18,3 C 98 % 1001,9 hPa 0,0 l/m 0 min 2 min 71 W/m 16,1 km/h (3 Bft) 95,74 %
01.10.2019 09:58 15,7 C 14,4 C 18,3 C 98 % 1001,9 hPa 0,0 l/m 0 min 2 min 63 W/m 29,0 km/h (5 Bft) 93,62 %
01.10.2019 10:00 15,6 C 14,4 C 18,3 C 98 % 1002,1 hPa 0,0 l/m 0 min 2 min 59 W/m 12,9 km/h (3 Bft) 95,65 %
01.10.2019 10:02 15,6 C 14,4 C 18,3 C 98 % 1001,9 hPa 0,0 l/m 0 min 2 min 57 W/m 22,5 km/h (4 Bft) 95,74 %
01.10.2019 10:04 15,6 C 14,4 C 18,3 C 98 % 1002,0 hPa 0,2 l/m 0 min 2 min 69 W/m 29,0 km/h (5 Bft) 91,49 %
01.10.2019 10:06 15,6 C 14,4 C 18,3 C 98 % 1002,0 hPa 0,0 l/m 0 min 2 min 80 W/m 25,7 km/h (4 Bft) 100,00 %
01.10.2019 10:08 15,5 C 14,4 C 18,3 C 98 % 1002,1 hPa 0,0 l/m 0 min 2 min 82 W/m 16,1 km/h (3 Bft) 97,87 %
01.10.2019 10:10 15,5 C 14,4 C 18,3 C 98 % 1002,0 hPa 0,0 l/m 0 min 2 min 79 W/m 16,1 km/h (3 Bft) 97,87 %
01.10.2019 10:12 15,5 C 14,4 C 18,3 C 98 % 1002,0 hPa 0,0 l/m 0 min 2 min 82 W/m 12,9 km/h (3 Bft) 100,00 %
01.10.2019 10:14 15,4 C 14,4 C 18,3 C 98 % 1002,1 hPa 0,0 l/m 0 min 2 min 89 W/m 32,2 km/h (5 Bft) 100,00 %
01.10.2019 10:16 15,4 C 14,4 C 18,3 C 98 % 1002,2 hPa 0,0 l/m 0 min 2 min 85 W/m 16,1 km/h (3 Bft) 100,00 %
01.10.2019 10:18 15,4 C 14,4 C 18,3 C 97 % 1002,2 hPa 0,0 l/m 0 min 2 min 78 W/m 22,5 km/h (4 Bft) 100,00 %
01.10.2019 10:20 15,4 C 14,4 C 18,3 C 97 % 1002,2 hPa 0,0 l/m 0 min 2 min 64 W/m 16,1 km/h (3 Bft) 97,87 %
01.10.2019 10:22 15,4 C 14,4 C 18,3 C 97 % 1002,3 hPa 0,0 l/m 0 min 2 min 70 W/m 12,9 km/h (3 Bft) 100,00 %
01.10.2019 10:24 15,4 C 14,4 C 18,3 C 97 % 1002,3 hPa 0,0 l/m 0 min 2 min 75 W/m 12,9 km/h (3 Bft) 100,00 %
01.10.2019 10:26 15,4 C 14,4 C 18,3 C 97 % 1002,4 hPa 0,0 l/m 0 min 2 min 79 W/m 9,7 km/h (2 Bft) 100,00 %
01.10.2019 10:28 15,4 C 14,4 C 18,3 C 97 % 1002,4 hPa 0,0 l/m 0 min 2 min 79 W/m 12,9 km/h (3 Bft) 100,00 %
01.10.2019 10:30 15,4 C 14,4 C 18,3 C 97 % 1002,4 hPa 0,0 l/m 0 min 2 min 71 W/m 19,3 km/h (3 Bft) 95,74 %
01.10.2019 10:32 15,4 C 14,4 C 18,3 C 97 % 1002,4 hPa 0,0 l/m 0 min 2 min 59 W/m 12,9 km/h (3 Bft) 95,74 %
01.10.2019 10:34 15,4 C 13,9 C 18,3 C 97 % 1002,4 hPa 0,0 l/m 0 min 2 min 54 W/m 12,9 km/h (3 Bft) 97,83 %
01.10.2019 10:36 15,4 C 13,9 C 18,3 C 97 % 1002,4 hPa 0,0 l/m 0 min 2 min 54 W/m 12,9 km/h (3 Bft) 97,87 %
01.10.2019 10:38 15,4 C 13,9 C 18,3 C 97 % 1002,3 hPa 0,2 l/m 0 min 2 min 53 W/m 12,9 km/h (3 Bft) 95,74 %
01.10.2019 10:40 15,4 C 13,9 C 18,3 C 97 % 1002,3 hPa 0,0 l/m 0 min 2 min 53 W/m 16,1 km/h (3 Bft) 97,87 %
01.10.2019 10:42 15,4 C 13,9 C 18,3 C 97 % 1002,3 hPa 0,0 l/m 0 min 2 min 54 W/m 19,3 km/h (3 Bft) 97,87 %
01.10.2019 10:44 15,3 C 13,9 C 18,3 C 97 % 1002,1 hPa 0,0 l/m 0 min 2 min 60 W/m 19,3 km/h (3 Bft) 97,87 %
01.10.2019 10:46 15,3 C 13,9 C 18,3 C 97 % 1002,1 hPa 0,0 l/m 0 min 2 min 68 W/m 29,0 km/h (5 Bft) 93,48 %
01.10.2019 10:48 15,3 C 13,9 C 18,3 C 97 % 1002,0 hPa 0,0 l/m 0 min 0 min 78 W/m 22,5 km/h (4 Bft) 97,87 %
01.10.2019 10:50 15,3 C 13,9 C 18,3 C 97 % 1001,9 hPa 0,0 l/m 0 min 0 min 88 W/m 19,3 km/h (3 Bft) 97,87 %
01.10.2019 10:52 15,3 C 13,9 C 18,3 C 97 % 1001,8 hPa 0,0 l/m 0 min 0 min 98 W/m 19,3 km/h (3 Bft) 97,87 %
01.10.2019 10:54 15,3 C 13,9 C 18,3 C 97 % 1001,8 hPa 0,0 l/m 0 min 0 min 105 W/m 25,7 km/h (4 Bft) 97,87 %
01.10.2019 10:56 15,3 C 14,4 C 18,3 C 97 % 1001,8 hPa 0,0 l/m 0 min 0 min 109 W/m 19,3 km/h (3 Bft) 97,87 %
01.10.2019 10:58 15,3 C 14,4 C 18,3 C 97 % 1001,9 hPa 0,0 l/m 0 min 0 min 107 W/m 22,5 km/h (4 Bft) 97,83 %
01.10.2019 11:00 15,3 C 14,4 C 18,3 C 97 % 1002,1 hPa 0,0 l/m 0 min 0 min 106 W/m 19,3 km/h (3 Bft) 97,87 %
01.10.2019 11:02 15,3 C 14,4 C 18,3 C 97 % 1002,1 hPa 0,0 l/m 0 min 0 min 105 W/m 22,5 km/h (4 Bft) 97,87 %
01.10.2019 11:04 15,3 C 14,4 C 18,3 C 97 % 1002,2 hPa 0,0 l/m 0 min 0 min 107 W/m 25,7 km/h (4 Bft) 95,74 %
01.10.2019 11:06 15,2 C 14,4 C 18,3 C 97 % 1002,2 hPa 0,0 l/m 0 min 0 min 108 W/m 16,1 km/h (3 Bft) 97,87 %
01.10.2019 11:08 15,2 C 14,4 C 18,3 C 97 % 1002,2 hPa 0,0 l/m 0 min 0 min 102 W/m 25,7 km/h (4 Bft) 100,00 %
01.10.2019 11:10 15,2 C 14,4 C 18,3 C 97 % 1002,3 hPa 0,0 l/m 0 min 0 min 101 W/m 35,4 km/h (5 Bft) 97,83 %
01.10.2019 11:12 15,2 C 14,4 C 18,3 C 97 % 1002,4 hPa 0,0 l/m 0 min 0 min 104 W/m 25,7 km/h (4 Bft) 97,87 %
01.10.2019 11:14 15,2 C 14,4 C 18,3 C 97 % 1002,6 hPa 0,0 l/m 0 min 0 min 94 W/m 22,5 km/h (4 Bft) 100,00 %
01.10.2019 11:16 15,2 C 13,9 C 18,3 C 97 % 1002,6 hPa 0,0 l/m 0 min 0 min 92 W/m 22,5 km/h (4 Bft) 100,00 %
01.10.2019 11:18 15,2 C 13,9 C 18,3 C 97 % 1002,5 hPa 0,0 l/m 0 min 2 min 95 W/m 19,3 km/h (3 Bft) 100,00 %
01.10.2019 11:20 15,2 C 13,9 C 18,3 C 97 % 1002,5 hPa 0,0 l/m 0 min 0 min 97 W/m 16,1 km/h (3 Bft) 100,00 %
01.10.2019 11:22 15,2 C 14,4 C 18,3 C 97 % 1002,4 hPa 0,0 l/m 0 min 2 min 92 W/m 12,9 km/h (3 Bft) 97,83 %
01.10.2019 11:24 15,2 C 13,9 C 18,3 C 97 % 1002,3 hPa 0,0 l/m 0 min 2 min 88 W/m 12,9 km/h (3 Bft) 100,00 %
01.10.2019 11:26 15,2 C 13,9 C 18,3 C 97 % 1002,3 hPa 0,0 l/m 0 min 0 min 83 W/m 16,1 km/h (3 Bft) 100,00 %
01.10.2019 11:28 15,1 C 13,9 C 18,3 C 97 % 1002,3 hPa 0,0 l/m 0 min 2 min 81 W/m 16,1 km/h (3 Bft) 74,47 %
01.10.2019 11:30 15,1 C 13,9 C 18,3 C 97 % 1002,3 hPa 0,0 l/m 0 min 2 min 76 W/m 16,1 km/h (3 Bft) 82,98 %
01.10.2019 11:32 15,1 C 13,9 C 18,3 C 97 % 1002,3 hPa 0,0 l/m 0 min 2 min 69 W/m 19,3 km/h (3 Bft) 100,00 %
01.10.2019 11:34 15,1 C 13,9 C 18,3 C 97 % 1002,3 hPa 0,0 l/m 0 min 2 min 67 W/m 19,3 km/h (3 Bft) 100,00 %
01.10.2019 11:36 15,1 C 13,9 C 18,3 C 97 % 1002,2 hPa 0,0 l/m 0 min 2 min 67 W/m 16,1 km/h (3 Bft) 100,00 %
01.10.2019 11:38 15,1 C 13,9 C 18,3 C 97 % 1002,2 hPa 0,0 l/m 0 min 2 min 70 W/m 22,5 km/h (4 Bft) 100,00 %
01.10.2019 11:40 15,1 C 13,9 C 18,3 C 97 % 1002,2 hPa 0,0 l/m 0 min 2 min 78 W/m 12,9 km/h (3 Bft) 100,00 %
01.10.2019 11:42 15,1 C 13,9 C 18,3 C 97 % 1002,1 hPa 0,0 l/m 0 min 2 min 88 W/m 12,9 km/h (3 Bft) 100,00 %
01.10.2019 11:44 15,1 C 13,9 C 18,3 C 97 % 1002,2 hPa 0,0 l/m 0 min 2 min 96 W/m 16,1 km/h (3 Bft) 100,00 %
01.10.2019 11:46 15,2 C 14,4 C 18,3 C 97 % 1002,2 hPa 0,0 l/m 0 min 2 min 98 W/m 12,9 km/h (3 Bft) 97,83 %
01.10.2019 11:48 15,2 C 14,4 C 18,3 C 97 % 1002,1 hPa 0,0 l/m 0 min 2 min 97 W/m 6,4 km/h (2 Bft) 100,00 %
01.10.2019 11:50 15,2 C 14,4 C 18,3 C 97 % 1002,1 hPa 0,0 l/m 0 min 0 min 91 W/m 12,9 km/h (3 Bft) 100,00 %
01.10.2019 11:52 15,2 C 14,4 C 18,3 C 97 % 1001,9 hPa 0,0 l/m 0 min 0 min 88 W/m 22,5 km/h (4 Bft) 100,00 %
01.10.2019 11:54 15,2 C 14,4 C 18,3 C 97 % 1002,0 hPa 0,0 l/m 0 min 0 min 87 W/m 19,3 km/h (3 Bft) 100,00 %
01.10.2019 11:56 15,2 C 14,4 C 18,3 C 97 % 1002,0 hPa 0,0 l/m 0 min 0 min 97 W/m 16,1 km/h (3 Bft) 100,00 %
01.10.2019 11:58 15,3 C 14,4 C 18,3 C 97 % 1002,0 hPa 0,0 l/m 0 min 2 min 113 W/m 19,3 km/h (3 Bft) 100,00 %
01.10.2019 12:00 15,3 C 14,4 C 18,3 C 97 % 1002,1 hPa 0,0 l/m 0 min 2 min 127 W/m 16,1 km/h (3 Bft) 100,00 %
01.10.2019 12:02 15,3 C 14,4 C 18,3 C 97 % 1002,0 hPa 0,0 l/m 0 min 2 min 128 W/m 16,1 km/h (3 Bft) 97,87 %
01.10.2019 12:04 15,3 C 14,4 C 18,3 C 97 % 1001,9 hPa 0,0 l/m 0 min 2 min 134 W/m 12,9 km/h (3 Bft) 97,87 %
01.10.2019 12:08 15,4 C 14,4 C 18,3 C 98 % 1002,1 hPa 0,0 l/m 0 min 4 min 128 W/m 22,5 km/h (4 Bft) 98,92 %
01.10.2019 12:10 15,4 C 14,4 C 18,3 C 98 % 1002,0 hPa 0,0 l/m 0 min 2 min 113 W/m 16,1 km/h (3 Bft) 97,87 %
01.10.2019 12:12 15,4 C 14,4 C 18,3 C 98 % 1001,9 hPa 0,0 l/m 0 min 2 min 114 W/m 12,9 km/h (3 Bft) 97,87 %
01.10.2019 12:14 15,4 C 14,4 C 18,3 C 98 % 1001,9 hPa 0,2 l/m 0 min 2 min 127 W/m 12,9 km/h (3 Bft) 100,00 %
01.10.2019 12:16 15,5 C 15,0 C 18,3 C 98 % 1002,0 hPa 0,0 l/m 0 min 2 min 142 W/m 6,4 km/h (2 Bft) 100,00 %
01.10.2019 12:18 15,5 C 15,0 C 18,3 C 98 % 1001,9 hPa 0,0 l/m 0 min 2 min 172 W/m 12,9 km/h (3 Bft) 100,00 %
01.10.2019 12:20 15,5 C 15,6 C 18,3 C 98 % 1001,8 hPa 0,0 l/m 0 min 2 min 239 W/m 6,4 km/h (2 Bft) 97,83 %
01.10.2019 12:22 15,6 C 16,1 C 18,3 C 98 % 1001,8 hPa 0,0 l/m 2 min 2 min 320 W/m 6,4 km/h (2 Bft) 95,74 %
01.10.2019 12:24 15,6 C 16,1 C 18,3 C 98 % 1001,8 hPa 0,0 l/m 2 min 0 min 294 W/m 12,9 km/h (3 Bft) 95,74 %
01.10.2019 12:26 15,7 C 16,1 C 18,3 C 98 % 1001,8 hPa 0,0 l/m 0 min 0 min 236 W/m 9,7 km/h (2 Bft) 95,74 %
01.10.2019 12:28 15,7 C 16,1 C 18,3 C 98 % 1001,9 hPa 0,0 l/m 0 min 0 min 193 W/m 12,9 km/h (3 Bft) 95,74 %
01.10.2019 12:30 15,8 C 15,6 C 18,3 C 98 % 1001,9 hPa 0,0 l/m 0 min 0 min 182 W/m 16,1 km/h (3 Bft) 95,74 %
01.10.2019 12:32 15,8 C 16,1 C 18,3 C 98 % 1001,9 hPa 0,0 l/m 0 min 0 min 203 W/m 6,4 km/h (2 Bft) 95,65 %
01.10.2019 12:34 15,9 C 16,1 C 18,3 C 98 % 1001,9 hPa 0,0 l/m 0 min 0 min 234 W/m 6,4 km/h (2 Bft) 95,74 %
01.10.2019 12:36 16,0 C 16,1 C 18,3 C 98 % 1001,8 hPa 0,0 l/m 0 min 0 min 244 W/m 16,1 km/h (3 Bft) 93,62 %
01.10.2019 12:38 16,1 C 16,1 C 18,3 C 98 % 1001,9 hPa 0,0 l/m 0 min 0 min 213 W/m 12,9 km/h (3 Bft) 95,74 %
01.10.2019 12:40 16,1 C 16,1 C 18,3 C 98 % 1001,9 hPa 0,0 l/m 0 min 0 min 167 W/m 19,3 km/h (3 Bft) 95,74 %
01.10.2019 12:42 16,1 C 15,6 C 18,3 C 98 % 1002,0 hPa 0,0 l/m 0 min 0 min 137 W/m 16,1 km/h (3 Bft) 95,74 %
01.10.2019 12:44 16,1 C 15,6 C 18,3 C 98 % 1002,0 hPa 0,0 l/m 0 min 0 min 140 W/m 12,9 km/h (3 Bft) 93,48 %
01.10.2019 12:46 16,1 C 15,6 C 18,3 C 98 % 1002,1 hPa 0,0 l/m 0 min 0 min 139 W/m 22,5 km/h (4 Bft) 95,74 %
01.10.2019 12:48 16,1 C 15,6 C 18,3 C 98 % 1001,9 hPa 0,0 l/m 0 min 0 min 159 W/m 25,7 km/h (4 Bft) 95,74 %
01.10.2019 12:50 16,1 C 15,6 C 18,3 C 98 % 1001,9 hPa 0,0 l/m 0 min 0 min 187 W/m 19,3 km/h (3 Bft) 95,74 %
01.10.2019 12:52 16,1 C 15,6 C 18,3 C 98 % 1001,8 hPa 0,0 l/m 0 min 0 min 197 W/m 16,1 km/h (3 Bft) 93,62 %
01.10.2019 12:54 16,1 C 16,1 C 18,3 C 98 % 1001,9 hPa 0,0 l/m 0 min 0 min 198 W/m 16,1 km/h (3 Bft) 93,62 %
01.10.2019 12:56 16,1 C 16,1 C 18,3 C 98 % 1001,9 hPa 0,0 l/m 0 min 0 min 193 W/m 16,1 km/h (3 Bft) 93,48 %
01.10.2019 12:58 16,2 C 16,1 C 18,3 C 98 % 1002,0 hPa 0,0 l/m 0 min 0 min 156 W/m 3,2 km/h (1 Bft) 95,74 %
01.10.2019 13:00 16,2 C 16,1 C 18,3 C 98 % 1002,1 hPa 0,0 l/m 0 min 0 min 182 W/m 9,7 km/h (2 Bft) 93,62 %
01.10.2019 13:02 16,2 C 16,1 C 18,3 C 98 % 1002,2 hPa 0,0 l/m 0 min 0 min 246 W/m 25,7 km/h (4 Bft) 93,62 %
01.10.2019 13:04 16,2 C 16,7 C 18,3 C 98 % 1002,3 hPa 0,0 l/m 2 min 0 min 330 W/m 9,7 km/h (2 Bft) 93,62 %
01.10.2019 13:06 16,3 C 16,7 C 18,3 C 98 % 1002,3 hPa 0,0 l/m 2 min 0 min 303 W/m 9,7 km/h (2 Bft) 89,13 %
01.10.2019 13:08 16,3 C 16,7 C 18,3 C 98 % 1002,2 hPa 0,0 l/m 2 min 0 min 300 W/m 12,9 km/h (3 Bft) 93,62 %
01.10.2019 13:10 16,3 C 16,7 C 18,3 C 98 % 1002,1 hPa 0,0 l/m 0 min 0 min 272 W/m 9,7 km/h (2 Bft) 93,62 %
01.10.2019 13:12 16,4 C 16,7 C 18,3 C 98 % 1002,0 hPa 0,0 l/m 0 min 2 min 181 W/m 6,4 km/h (2 Bft) 93,62 %
01.10.2019 13:14 16,4 C 16,7 C 18,3 C 98 % 1002,0 hPa 0,0 l/m 0 min 2 min 168 W/m 19,3 km/h (3 Bft) 91,49 %
01.10.2019 13:16 16,4 C 16,7 C 18,3 C 98 % 1002,0 hPa 0,0 l/m 0 min 0 min 203 W/m 22,5 km/h (4 Bft) 93,62 %
01.10.2019 13:18 16,4 C 16,7 C 18,3 C 98 % 1001,8 hPa 0,0 l/m 0 min 0 min 211 W/m 16,1 km/h (3 Bft) 95,65 %
01.10.2019 13:20 16,5 C 16,1 C 18,3 C 97 % 1001,7 hPa 0,0 l/m 0 min 0 min 192 W/m 19,3 km/h (3 Bft) 97,87 %
01.10.2019 13:22 16,5 C 16,1 C 18,3 C 97 % 1001,7 hPa 0,0 l/m 0 min 0 min 185 W/m 22,5 km/h (4 Bft) 95,74 %
01.10.2019 13:24 16,5 C 16,1 C 18,3 C 97 % 1001,7 hPa 0,0 l/m 0 min 0 min 199 W/m 16,1 km/h (3 Bft) 97,87 %
01.10.2019 13:26 16,5 C 16,1 C 18,3 C 97 % 1001,5 hPa 0,0 l/m 0 min 2 min 207 W/m 19,3 km/h (3 Bft) 95,74 %
01.10.2019 13:28 16,5 C 15,6 C 18,3 C 97 % 1001,5 hPa 0,0 l/m 0 min 2 min 177 W/m 16,1 km/h (3 Bft) 97,87 %
01.10.2019 13:30 16,6 C 16,1 C 18,3 C 97 % 1001,4 hPa 0,0 l/m 0 min 0 min 182 W/m 16,1 km/h (3 Bft) 97,83 %
01.10.2019 13:32 16,6 C 16,1 C 18,3 C 97 % 1001,4 hPa 0,0 l/m 0 min 0 min 218 W/m 12,9 km/h (3 Bft) 95,74 %
01.10.2019 13:34 16,6 C 16,1 C 18,3 C 97 % 1001,5 hPa 0,0 l/m 0 min 0 min 253 W/m 32,2 km/h (5 Bft) 97,87 %
01.10.2019 13:36 16,6 C 16,1 C 18,3 C 97 % 1001,5 hPa 0,0 l/m 0 min 0 min 251 W/m 22,5 km/h (4 Bft) 95,74 %
01.10.2019 13:38 16,6 C 16,1 C 18,3 C 96 % 1001,5 hPa 0,0 l/m 0 min 0 min 233 W/m 29,0 km/h (5 Bft) 97,87 %
01.10.2019 13:40 16,6 C 16,1 C 18,3 C 96 % 1001,6 hPa 0,0 l/m 0 min 0 min 208 W/m 12,9 km/h (3 Bft) 100,00 %
01.10.2019 13:42 16,6 C 16,7 C 18,3 C 96 % 1001,5 hPa 0,0 l/m 0 min 0 min 206 W/m 12,9 km/h (3 Bft) 100,00 %
01.10.2019 13:44 16,7 C 16,7 C 18,3 C 95 % 1001,6 hPa 0,0 l/m 0 min 0 min 229 W/m 19,3 km/h (3 Bft) 95,74 %
01.10.2019 13:46 16,7 C 16,7 C 18,3 C 96 % 1001,6 hPa 0,0 l/m 0 min 0 min 197 W/m 12,9 km/h (3 Bft) 100,00 %
01.10.2019 13:48 16,7 C 16,1 C 18,3 C 95 % 1001,7 hPa 0,0 l/m 0 min 0 min 147 W/m 19,3 km/h (3 Bft) 100,00 %
01.10.2019 13:50 16,7 C 15,6 C 18,3 C 95 % 1001,7 hPa 0,0 l/m 0 min 2 min 104 W/m 16,1 km/h (3 Bft) 100,00 %
01.10.2019 13:52 16,7 C 15,6 C 18,3 C 95 % 1001,6 hPa 0,0 l/m 0 min 2 min 90 W/m 12,9 km/h (3 Bft) 100,00 %
01.10.2019 13:54 16,7 C 15,6 C 18,3 C 94 % 1001,6 hPa 0,0 l/m 0 min 2 min 88 W/m 12,9 km/h (3 Bft) 97,87 %
01.10.2019 13:56 16,7 C 15,6 C 18,3 C 94 % 1001,6 hPa 0,0 l/m 0 min 2 min 79 W/m 12,9 km/h (3 Bft) 100,00 %
01.10.2019 13:58 16,7 C 15,6 C 18,3 C 94 % 1001,5 hPa 0,0 l/m 0 min 2 min 77 W/m 9,7 km/h (2 Bft) 100,00 %
01.10.2019 14:00 16,7 C 15,6 C 18,3 C 94 % 1001,5 hPa 0,0 l/m 0 min 0 min 86 W/m 9,7 km/h (2 Bft) 97,87 %
01.10.2019 14:02 16,7 C 15,6 C 18,3 C 94 % 1001,4 hPa 0,0 l/m 0 min 0 min 80 W/m 16,1 km/h (3 Bft) 97,87 %
01.10.2019 14:04 16,7 C 15,6 C 18,3 C 94 % 1001,5 hPa 0,0 l/m 0 min 0 min 72 W/m 19,3 km/h (3 Bft) 100,00 %
01.10.2019 14:06 16,7 C 15,0 C 18,3 C 93 % 1001,7 hPa 0,0 l/m 0 min 0 min 52 W/m 41,8 km/h (6 Bft) 100,00 %
01.10.2019 14:08 16,6 C 15,0 C 18,3 C 93 % 1001,5 hPa 0,0 l/m 0 min 0 min 61 W/m 29,0 km/h (5 Bft) 100,00 %
01.10.2019 14:10 16,6 C 15,0 C 18,3 C 92 % 1001,5 hPa 0,0 l/m 0 min 0 min 78 W/m 19,3 km/h (3 Bft) 100,00 %
01.10.2019 14:12 16,5 C 15,0 C 18,3 C 92 % 1001,8 hPa 0,0 l/m 0 min 0 min 66 W/m 22,5 km/h (4 Bft) 97,87 %
01.10.2019 14:14 16,5 C 15,0 C 18,3 C 92 % 1001,4 hPa 0,0 l/m 0 min 2 min 97 W/m 12,9 km/h (3 Bft) 100,00 %
01.10.2019 14:16 16,5 C 15,0 C 18,3 C 92 % 1001,5 hPa 0,0 l/m 0 min 2 min 91 W/m 12,9 km/h (3 Bft) 100,00 %
01.10.2019 14:18 16,4 C 15,0 C 18,3 C 92 % 1001,5 hPa 0,0 l/m 0 min 0 min 58 W/m 16,1 km/h (3 Bft) 100,00 %
01.10.2019 14:20 16,4 C 15,0 C 18,3 C 92 % 1001,5 hPa 0,0 l/m 0 min 2 min 49 W/m 12,9 km/h (3 Bft) 100,00 %
01.10.2019 14:22 16,4 C 15,0 C 18,3 C 92 % 1001,4 hPa 0,0 l/m 0 min 2 min 58 W/m 12,9 km/h (3 Bft) 100,00 %
01.10.2019 14:24 16,4 C 15,0 C 18,3 C 92 % 1001,4 hPa 0,0 l/m 0 min 0 min 67 W/m 16,1 km/h (3 Bft) 100,00 %
01.10.2019 14:26 16,4 C 15,0 C 18,3 C 92 % 1001,3 hPa 0,0 l/m 0 min 2 min 110 W/m 16,1 km/h (3 Bft) 100,00 %
01.10.2019 14:28 16,4 C 15,0 C 18,3 C 92 % 1001,3 hPa 0,0 l/m 0 min 2 min 130 W/m 22,5 km/h (4 Bft) 97,83 %
01.10.2019 14:30 16,4 C 15,0 C 18,3 C 92 % 1001,4 hPa 0,0 l/m 0 min 0 min 136 W/m 6,4 km/h (2 Bft) 100,00 %
01.10.2019 14:32 16,4 C 15,6 C 18,3 C 93 % 1001,3 hPa 0,0 l/m 0 min 0 min 132 W/m 9,7 km/h (2 Bft) 100,00 %
01.10.2019 14:34 16,4 C 15,6 C 18,3 C 93 % 1001,3 hPa 0,0 l/m 0 min 0 min 109 W/m 6,4 km/h (2 Bft) 100,00 %
01.10.2019 14:36 16,4 C 15,6 C 18,3 C 93 % 1001,4 hPa 0,0 l/m 0 min 2 min 101 W/m 22,5 km/h (4 Bft) 100,00 %
01.10.2019 14:38 16,4 C 15,6 C 18,3 C 93 % 1001,3 hPa 0,0 l/m 0 min 0 min 109 W/m 16,1 km/h (3 Bft) 100,00 %
01.10.2019 14:40 16,4 C 15,6 C 18,3 C 93 % 1001,3 hPa 0,0 l/m 0 min 0 min 110 W/m 19,3 km/h (3 Bft) 100,00 %
01.10.2019 14:42 16,4 C 15,6 C 18,3 C 93 % 1001,4 hPa 0,0 l/m 0 min 0 min 118 W/m 16,1 km/h (3 Bft) 100,00 %
01.10.2019 14:44 16,4 C 15,6 C 18,3 C 93 % 1001,4 hPa 0,0 l/m 0 min 0 min 188 W/m 22,5 km/h (4 Bft) 100,00 %
01.10.2019 14:46 16,4 C 16,1 C 18,3 C 93 % 1001,3 hPa 0,0 l/m 0 min 0 min 198 W/m 19,3 km/h (3 Bft) 100,00 %
01.10.2019 14:48 16,4 C 16,1 C 18,3 C 93 % 1001,2 hPa 0,0 l/m 0 min 0 min 179 W/m 12,9 km/h (3 Bft) 97,87 %
01.10.2019 14:50 16,4 C 16,1 C 18,3 C 93 % 1001,3 hPa 0,0 l/m 0 min 0 min 149 W/m 22,5 km/h (4 Bft) 100,00 %
01.10.2019 14:52 16,4 C 16,7 C 18,3 C 93 % 1001,2 hPa 0,0 l/m 0 min 0 min 189 W/m 19,3 km/h (3 Bft) 100,00 %
01.10.2019 14:54 16,4 C 16,7 C 18,3 C 93 % 1001,2 hPa 0,0 l/m 0 min 0 min 204 W/m 25,7 km/h (4 Bft) 100,00 %
01.10.2019 14:56 16,4 C 16,7 C 18,3 C 93 % 1001,2 hPa 0,0 l/m 0 min 0 min 186 W/m 32,2 km/h (5 Bft) 100,00 %
01.10.2019 14:58 16,4 C 16,7 C 18,3 C 93 % 1001,2 hPa 0,0 l/m 0 min 0 min 171 W/m 19,3 km/h (3 Bft) 100,00 %
01.10.2019 15:00 16,4 C 16,7 C 18,3 C 93 % 1001,1 hPa 0,0 l/m 0 min 0 min 158 W/m 19,3 km/h (3 Bft) 100,00 %
01.10.2019 15:02 16,4 C 16,7 C 18,3 C 93 % 1001,1 hPa 0,0 l/m 0 min 0 min 163 W/m 19,3 km/h (3 Bft) 100,00 %
01.10.2019 15:04 16,4 C 16,7 C 18,3 C 93 % 1001,2 hPa 0,0 l/m 0 min 0 min 151 W/m 19,3 km/h (3 Bft) 97,87 %
01.10.2019 15:06 16,4 C 16,7 C 18,3 C 93 % 1001,1 hPa 0,0 l/m 0 min 0 min 135 W/m 29,0 km/h (5 Bft) 100,00 %
01.10.2019 15:08 16,4 C 16,7 C 18,3 C 92 % 1001,2 hPa 0,0 l/m 0 min 0 min 154 W/m 25,7 km/h (4 Bft) 100,00 %
01.10.2019 15:10 16,4 C 16,7 C 18,3 C 92 % 1001,1 hPa 0,0 l/m 0 min 0 min 202 W/m 32,2 km/h (5 Bft) 100,00 %
01.10.2019 15:12 16,4 C 16,7 C 18,3 C 92 % 1001,2 hPa 0,0 l/m 0 min 0 min 225 W/m 22,5 km/h (4 Bft) 100,00 %
01.10.2019 15:14 16,4 C 16,7 C 18,3 C 92 % 1001,2 hPa 0,0 l/m 0 min 0 min 212 W/m 22,5 km/h (4 Bft) 100,00 %
01.10.2019 15:16 16,4 C 16,7 C 18,3 C 92 % 1001,1 hPa 0,0 l/m 0 min 0 min 164 W/m 19,3 km/h (3 Bft) 100,00 %
01.10.2019 15:18 16,4 C 16,7 C 18,3 C 92 % 1001,2 hPa 0,0 l/m 0 min 0 min 132 W/m 16,1 km/h (3 Bft) 97,87 %
01.10.2019 15:20 16,4 C 16,7 C 18,3 C 92 % 1001,1 hPa 0,0 l/m 0 min 0 min 102 W/m 19,3 km/h (3 Bft) 97,87 %
01.10.2019 15:22 16,5 C 16,1 C 18,3 C 92 % 1001,2 hPa 0,0 l/m 0 min 0 min 83 W/m 19,3 km/h (3 Bft) 100,00 %
01.10.2019 15:24 16,5 C 16,1 C 18,3 C 92 % 1001,2 hPa 0,0 l/m 0 min 0 min 83 W/m 12,9 km/h (3 Bft) 95,74 %
01.10.2019 15:26 16,5 C 16,1 C 18,3 C 92 % 1001,1 hPa 0,0 l/m 0 min 0 min 76 W/m 12,9 km/h (3 Bft) 95,65 %
01.10.2019 15:28 16,5 C 16,1 C 18,3 C 92 % 1001,2 hPa 0,0 l/m 0 min 0 min 76 W/m 29,0 km/h (5 Bft) 95,74 %
01.10.2019 15:30 16,5 C 16,1 C 18,3 C 92 % 1001,2 hPa 0,0 l/m 0 min 0 min 84 W/m 22,5 km/h (4 Bft) 95,74 %
01.10.2019 15:32 16,5 C 16,1 C 18,3 C 92 % 1001,1 hPa 0,0 l/m 0 min 0 min 93 W/m 16,1 km/h (3 Bft) 95,74 %
01.10.2019 15:34 16,4 C 16,1 C 18,3 C 92 % 1001,2 hPa 0,0 l/m 0 min 0 min 90 W/m 19,3 km/h (3 Bft) 93,62 %
01.10.2019 15:36 16,5 C 16,1 C 18,3 C 92 % 1001,1 hPa 0,0 l/m 0 min 0 min 101 W/m 16,1 km/h (3 Bft) 93,62 %
01.10.2019 15:38 16,5 C 16,1 C 18,3 C 92 % 1001,1 hPa 0,0 l/m 0 min 0 min 111 W/m 25,7 km/h (4 Bft) 95,65 %
01.10.2019 15:40 16,5 C 16,1 C 18,3 C 92 % 1001,0 hPa 0,0 l/m 0 min 0 min 134 W/m 19,3 km/h (3 Bft) 95,74 %
01.10.2019 15:42 16,4 C 16,7 C 18,3 C 92 % 1001,0 hPa 0,0 l/m 0 min 0 min 142 W/m 22,5 km/h (4 Bft) 93,62 %
01.10.2019 15:44 16,5 C 16,7 C 18,3 C 92 % 1000,9 hPa 0,0 l/m 0 min 0 min 136 W/m 19,3 km/h (3 Bft) 93,62 %
01.10.2019 15:46 16,4 C 16,7 C 18,3 C 92 % 1001,0 hPa 0,0 l/m 0 min 0 min 130 W/m 19,3 km/h (3 Bft) 93,62 %
01.10.2019 15:48 16,5 C 16,7 C 18,3 C 92 % 1001,0 hPa 0,0 l/m 0 min 0 min 127 W/m 16,1 km/h (3 Bft) 93,48 %
01.10.2019 15:50 16,5 C 16,7 C 18,3 C 92 % 1001,0 hPa 0,0 l/m 0 min 0 min 134 W/m 19,3 km/h (3 Bft) 93,62 %
01.10.2019 15:52 16,5 C 16,7 C 18,3 C 92 % 1001,0 hPa 0,0 l/m 0 min 0 min 138 W/m 22,5 km/h (4 Bft) 91,49 %
01.10.2019 15:54 16,5 C 16,7 C 18,3 C 92 % 1000,9 hPa 0,0 l/m 0 min 0 min 130 W/m 12,9 km/h (3 Bft) 93,62 %
01.10.2019 15:56 16,5 C 16,7 C 18,3 C 92 % 1000,9 hPa 0,0 l/m 0 min 0 min 125 W/m 16,1 km/h (3 Bft) 93,62 %
01.10.2019 15:58 16,5 C 16,7 C 18,3 C 92 % 1000,9 hPa 0,0 l/m 0 min 0 min 128 W/m 19,3 km/h (3 Bft) 91,49 %
01.10.2019 16:00 16,5 C 16,7 C 18,3 C 92 % 1000,8 hPa 0,0 l/m 0 min 0 min 117 W/m 16,1 km/h (3 Bft) 93,62 %
01.10.2019 16:02 16,5 C 16,7 C 18,3 C 92 % 1000,9 hPa 0,0 l/m 0 min 0 min 135 W/m 19,3 km/h (3 Bft) 93,48 %
01.10.2019 16:04 16,5 C 16,7 C 18,3 C 92 % 1001,0 hPa 0,0 l/m 0 min 0 min 134 W/m 22,5 km/h (4 Bft) 93,62 %
01.10.2019 16:06 16,5 C 16,7 C 18,3 C 92 % 1000,9 hPa 0,0 l/m 0 min 0 min 117 W/m 12,9 km/h (3 Bft) 93,62 %
01.10.2019 16:08 16,5 C 16,7 C 18,3 C 92 % 1000,9 hPa 0,0 l/m 0 min 0 min 126 W/m 16,1 km/h (3 Bft) 91,49 %
01.10.2019 16:10 16,5 C 16,7 C 18,3 C 92 % 1000,9 hPa 0,0 l/m 0 min 0 min 139 W/m 16,1 km/h (3 Bft) 95,74 %
01.10.2019 16:12 16,6 C 17,2 C 18,3 C 92 % 1000,9 hPa 0,0 l/m 0 min 0 min 154 W/m 12,9 km/h (3 Bft) 93,48 %
01.10.2019 16:14 16,6 C 17,2 C 18,3 C 92 % 1000,9 hPa 0,0 l/m 0 min 0 min 140 W/m 12,9 km/h (3 Bft) 93,62 %
01.10.2019 16:16 16,6 C 17,2 C 18,3 C 92 % 1000,8 hPa 0,0 l/m 0 min 0 min 140 W/m 6,4 km/h (2 Bft) 95,74 %
01.10.2019 16:18 16,6 C 16,7 C 18,3 C 92 % 1000,8 hPa 0,0 l/m 0 min 0 min 116 W/m 12,9 km/h (3 Bft) 97,87 %
01.10.2019 16:20 16,6 C 16,7 C 18,3 C 92 % 1000,8 hPa 0,0 l/m 0 min 0 min 104 W/m 22,5 km/h (4 Bft) 95,74 %
01.10.2019 16:22 16,6 C 16,7 C 18,3 C 92 % 1000,8 hPa 0,0 l/m 0 min 0 min 98 W/m 16,1 km/h (3 Bft) 97,87 %
01.10.2019 16:24 16,7 C 16,7 C 18,3 C 92 % 1000,8 hPa 0,0 l/m 0 min 0 min 115 W/m 16,1 km/h (3 Bft) 93,48 %
01.10.2019 16:26 16,7 C 16,7 C 18,3 C 92 % 1000,7 hPa 0,0 l/m 0 min 0 min 139 W/m 22,5 km/h (4 Bft) 95,74 %
01.10.2019 16:28 16,7 C 16,7 C 18,3 C 92 % 1000,7 hPa 0,0 l/m 0 min 0 min 149 W/m 16,1 km/h (3 Bft) 97,87 %
01.10.2019 16:30 16,7 C 16,7 C 18,3 C 92 % 1000,7 hPa 0,0 l/m 0 min 0 min 129 W/m 16,1 km/h (3 Bft) 93,62 %
01.10.2019 16:32 16,7 C 16,7 C 18,3 C 92 % 1000,7 hPa 0,0 l/m 0 min 0 min 114 W/m 12,9 km/h (3 Bft) 97,87 %
01.10.2019 16:34 16,7 C 16,7 C 18,3 C 92 % 1000,6 hPa 0,0 l/m 0 min 0 min 102 W/m 16,1 km/h (3 Bft) 97,87 %
01.10.2019 16:36 16,7 C 16,7 C 18,3 C 92 % 1000,6 hPa 0,0 l/m 0 min 0 min 111 W/m 12,9 km/h (3 Bft) 95,65 %
01.10.2019 16:38 16,7 C 16,7 C 18,3 C 92 % 1000,6 hPa 0,0 l/m 0 min 0 min 123 W/m 12,9 km/h (3 Bft) 97,87 %
01.10.2019 16:40 16,8 C 16,7 C 18,3 C 92 % 1000,6 hPa 0,0 l/m 0 min 0 min 127 W/m 16,1 km/h (3 Bft) 100,00 %
01.10.2019 16:42 16,8 C 17,2 C 18,3 C 92 % 1000,5 hPa 0,0 l/m 0 min 0 min 124 W/m 16,1 km/h (3 Bft) 100,00 %
01.10.2019 16:44 16,8 C 16,7 C 18,3 C 92 % 1000,6 hPa 0,0 l/m 0 min 0 min 112 W/m 19,3 km/h (3 Bft) 100,00 %
01.10.2019 16:46 16,8 C 16,7 C 18,3 C 92 % 1000,6 hPa 0,0 l/m 0 min 0 min 105 W/m 16,1 km/h (3 Bft) 97,87 %
01.10.2019 16:48 16,8 C 16,7 C 18,3 C 91 % 1000,6 hPa 0,0 l/m 0 min 0 min 116 W/m 16,1 km/h (3 Bft) 100,00 %
01.10.2019 16:50 16,8 C 16,7 C 18,3 C 91 % 1000,7 hPa 0,0 l/m 0 min 0 min 122 W/m 22,5 km/h (4 Bft) 100,00 %
01.10.2019 16:52 16,8 C 17,2 C 18,3 C 91 % 1000,5 hPa 0,0 l/m 0 min 0 min 140 W/m 16,1 km/h (3 Bft) 100,00 %
01.10.2019 16:54 16,8 C 17,2 C 18,3 C 91 % 1000,5 hPa 0,0 l/m 0 min 0 min 149 W/m 16,1 km/h (3 Bft) 100,00 %
01.10.2019 16:56 16,8 C 17,2 C 18,3 C 91 % 1000,5 hPa 0,0 l/m 0 min 0 min 143 W/m 19,3 km/h (3 Bft) 97,87 %
01.10.2019 16:58 16,9 C 17,2 C 18,3 C 91 % 1000,5 hPa 0,0 l/m 0 min 0 min 130 W/m 12,9 km/h (3 Bft) 100,00 %
01.10.2019 17:00 16,9 C 17,2 C 18,3 C 91 % 1000,5 hPa 0,0 l/m 0 min 0 min 126 W/m 12,9 km/h (3 Bft) 100,00 %
01.10.2019 17:02 16,9 C 17,2 C 18,3 C 91 % 1000,5 hPa 0,0 l/m 0 min 0 min 122 W/m 16,1 km/h (3 Bft) 100,00 %
01.10.2019 17:04 16,9 C 17,2 C 18,3 C 91 % 1000,5 hPa 0,0 l/m 0 min 0 min 113 W/m 25,7 km/h (4 Bft) 100,00 %
01.10.2019 17:06 16,9 C 17,2 C 18,3 C 90 % 1000,4 hPa 0,0 l/m 0 min 0 min 110 W/m 16,1 km/h (3 Bft) 100,00 %
01.10.2019 17:08 16,9 C 17,2 C 18,3 C 90 % 1000,4 hPa 0,0 l/m 0 min 0 min 114 W/m 19,3 km/h (3 Bft) 100,00 %
01.10.2019 17:10 16,9 C 17,2 C 18,3 C 90 % 1000,5 hPa 0,0 l/m 0 min 0 min 118 W/m 19,3 km/h (3 Bft) 100,00 %
01.10.2019 17:12 16,9 C 16,7 C 18,3 C 90 % 1000,4 hPa 0,0 l/m 0 min 0 min 110 W/m 16,1 km/h (3 Bft) 100,00 %
01.10.2019 17:14 17,0 C 16,7 C 18,3 C 90 % 1000,5 hPa 0,0 l/m 0 min 0 min 97 W/m 19,3 km/h (3 Bft) 97,87 %
01.10.2019 17:16 17,0 C 16,7 C 18,3 C 90 % 1000,4 hPa 0,0 l/m 0 min 0 min 88 W/m 12,9 km/h (3 Bft) 100,00 %
01.10.2019 17:18 17,0 C 16,7 C 18,3 C 90 % 1000,4 hPa 0,0 l/m 0 min 0 min 83 W/m 16,1 km/h (3 Bft) 100,00 %
01.10.2019 17:20 17,0 C 16,7 C 18,3 C 90 % 1000,4 hPa 0,0 l/m 0 min 0 min 79 W/m 19,3 km/h (3 Bft) 100,00 %
01.10.2019 17:22 17,0 C 16,7 C 18,3 C 90 % 1000,4 hPa 0,0 l/m 0 min 0 min 77 W/m 22,5 km/h (4 Bft) 100,00 %
01.10.2019 17:24 17,0 C 16,7 C 18,3 C 90 % 1000,3 hPa 0,0 l/m 0 min 0 min 74 W/m 22,5 km/h (4 Bft) 100,00 %
01.10.2019 17:26 17,0 C 16,7 C 18,3 C 90 % 1000,3 hPa 0,0 l/m 0 min 0 min 70 W/m 16,1 km/h (3 Bft) 100,00 %
01.10.2019 17:28 17,0 C 16,7 C 18,3 C 89 % 1000,3 hPa 0,0 l/m 0 min 0 min 72 W/m 25,7 km/h (4 Bft) 100,00 %
01.10.2019 17:30 17,0 C 16,7 C 18,3 C 89 % 1000,3 hPa 0,0 l/m 0 min 0 min 68 W/m 16,1 km/h (3 Bft) 97,87 %
01.10.2019 17:32 17,0 C 16,7 C 18,3 C 90 % 1000,2 hPa 0,0 l/m 0 min 0 min 62 W/m 12,9 km/h (3 Bft) 100,00 %
01.10.2019 17:34 17,0 C 16,7 C 18,3 C 90 % 1000,2 hPa 0,0 l/m 0 min 0 min 57 W/m 16,1 km/h (3 Bft) 100,00 %
01.10.2019 17:36 17,0 C 16,7 C 18,3 C 89 % 1000,1 hPa 0,0 l/m 0 min 0 min 54 W/m 12,9 km/h (3 Bft) 100,00 %
01.10.2019 17:38 17,0 C 16,7 C 18,3 C 89 % 1000,1 hPa 0,0 l/m 0 min 0 min 54 W/m 16,1 km/h (3 Bft) 100,00 %
01.10.2019 17:40 17,0 C 16,7 C 18,3 C 90 % 1000,1 hPa 0,0 l/m 0 min 0 min 53 W/m 16,1 km/h (3 Bft) 100,00 %
01.10.2019 17:42 17,0 C 16,7 C 18,3 C 90 % 1000,2 hPa 0,0 l/m 0 min 0 min 51 W/m 16,1 km/h (3 Bft) 100,00 %
01.10.2019 17:44 17,0 C 16,7 C 18,3 C 90 % 1000,2 hPa 0,0 l/m 0 min 0 min 47 W/m 6,4 km/h (2 Bft) 100,00 %
01.10.2019 17:46 17,0 C 16,7 C 18,3 C 90 % 1000,2 hPa 0,0 l/m 0 min 0 min 42 W/m 9,7 km/h (2 Bft) 100,00 %
01.10.2019 17:48 17,0 C 16,1 C 18,3 C 90 % 1000,3 hPa 0,0 l/m 0 min 0 min 41 W/m 12,9 km/h (3 Bft) 100,00 %
01.10.2019 17:50 16,9 C 16,1 C 18,3 C 90 % 1000,3 hPa 0,0 l/m 0 min 0 min 43 W/m 6,4 km/h (2 Bft) 100,00 %
01.10.2019 17:52 16,9 C 16,1 C 18,3 C 90 % 1000,2 hPa 0,0 l/m 0 min 0 min 44 W/m 6,4 km/h (2 Bft) 95,74 %
01.10.2019 17:54 16,9 C 16,1 C 18,3 C 90 % 1000,2 hPa 0,0 l/m 0 min 0 min 42 W/m 12,9 km/h (3 Bft) 97,87 %
01.10.2019 17:56 16,9 C 16,1 C 18,3 C 90 % 1000,1 hPa 0,0 l/m 0 min 0 min 40 W/m 6,4 km/h (2 Bft) 95,74 %
01.10.2019 17:58 16,9 C 16,1 C 18,3 C 90 % 1000,1 hPa 0,0 l/m 0 min 0 min 39 W/m 6,4 km/h (2 Bft) 97,83 %
01.10.2019 18:00 16,9 C 16,1 C 18,3 C 90 % 1000,2 hPa 0,0 l/m 0 min 0 min 37 W/m 6,4 km/h (2 Bft) 93,62 %
01.10.2019 18:02 16,9 C 16,1 C 18,3 C 90 % 1000,1 hPa 0,0 l/m 0 min 0 min 37 W/m 16,1 km/h (3 Bft) 97,87 %
01.10.2019 18:04 16,9 C 16,1 C 18,3 C 90 % 1000,1 hPa 0,0 l/m 0 min 0 min 37 W/m 19,3 km/h (3 Bft) 97,87 %
01.10.2019 18:08 16,9 C 16,1 C 18,3 C 90 % 1000,1 hPa 0,0 l/m 0 min 0 min 34 W/m 19,3 km/h (3 Bft) 96,77 %
01.10.2019 18:10 16,9 C 16,1 C 18,3 C 90 % 1000,1 hPa 0,0 l/m 0 min 0 min 32 W/m 12,9 km/h (3 Bft) 97,87 %
01.10.2019 18:12 16,9 C 16,1 C 18,3 C 90 % 1000,2 hPa 0,0 l/m 0 min 0 min 33 W/m 12,9 km/h (3 Bft) 97,87 %
01.10.2019 18:14 16,9 C 16,1 C 18,3 C 90 % 1000,2 hPa 0,0 l/m 0 min 0 min 31 W/m 12,9 km/h (3 Bft) 97,87 %
01.10.2019 18:16 16,9 C 16,1 C 18,3 C 90 % 1000,2 hPa 0,0 l/m 0 min 0 min 27 W/m 12,9 km/h (3 Bft) 97,87 %
01.10.2019 18:18 16,9 C 16,1 C 18,3 C 90 % 1000,2 hPa 0,0 l/m 0 min 0 min 26 W/m 12,9 km/h (3 Bft) 95,74 %
01.10.2019 18:20 16,9 C 16,1 C 18,3 C 90 % 1000,2 hPa 0,0 l/m 0 min 0 min 26 W/m 12,9 km/h (3 Bft) 97,83 %
01.10.2019 18:22 16,9 C 16,1 C 18,3 C 90 % 1000,0 hPa 0,0 l/m 0 min 0 min 26 W/m 12,9 km/h (3 Bft) 97,87 %
01.10.2019 18:24 16,9 C 16,1 C 18,3 C 90 % 1000,0 hPa 0,0 l/m 0 min 0 min 26 W/m 12,9 km/h (3 Bft) 95,74 %
01.10.2019 18:26 16,8 C 16,1 C 18,3 C 90 % 1000,1 hPa 0,0 l/m 0 min 0 min 27 W/m 12,9 km/h (3 Bft) 97,83 %
01.10.2019 18:28 16,8 C 16,1 C 18,3 C 90 % 1000,0 hPa 0,0 l/m 0 min 0 min 26 W/m 12,9 km/h (3 Bft) 97,87 %
01.10.2019 18:30 16,8 C 16,1 C 18,3 C 90 % 1000,0 hPa 0,0 l/m 0 min 0 min 24 W/m 16,1 km/h (3 Bft) 95,74 %
01.10.2019 18:32 16,8 C 16,1 C 18,3 C 90 % 1000,0 hPa 0,0 l/m 0 min 0 min 23 W/m 6,4 km/h (2 Bft) 95,65 %
01.10.2019 18:34 16,8 C 16,1 C 18,3 C 90 % 999,9 hPa 0,0 l/m 0 min 0 min 23 W/m 9,7 km/h (2 Bft) 95,74 %
01.10.2019 18:36 16,8 C 16,1 C 18,3 C 90 % 999,9 hPa 0,0 l/m 0 min 0 min 23 W/m 16,1 km/h (3 Bft) 95,74 %
01.10.2019 18:38 16,8 C 16,1 C 18,3 C 91 % 999,9 hPa 0,0 l/m 0 min 0 min 23 W/m 9,7 km/h (2 Bft) 97,87 %
01.10.2019 18:40 16,8 C 16,1 C 18,3 C 91 % 1000,0 hPa 0,0 l/m 0 min 0 min 23 W/m 9,7 km/h (2 Bft) 93,62 %
01.10.2019 18:42 16,8 C 16,1 C 18,3 C 91 % 999,9 hPa 0,0 l/m 0 min 0 min 22 W/m 16,1 km/h (3 Bft) 97,87 %
01.10.2019 18:44 16,8 C 16,1 C 18,3 C 91 % 999,8 hPa 0,0 l/m 0 min 0 min 21 W/m 6,4 km/h (2 Bft) 97,83 %
01.10.2019 18:46 16,8 C 16,1 C 18,3 C 91 % 999,8 hPa 0,0 l/m 0 min 0 min 21 W/m 9,7 km/h (2 Bft) 93,62 %
01.10.2019 18:48 16,8 C 16,1 C 18,3 C 91 % 999,7 hPa 0,0 l/m 0 min 0 min 19 W/m 9,7 km/h (2 Bft) 95,74 %
01.10.2019 18:50 16,8 C 15,6 C 18,3 C 91 % 999,8 hPa 0,0 l/m 0 min 0 min 18 W/m 6,4 km/h (2 Bft) 93,62 %
01.10.2019 18:52 16,8 C 15,6 C 18,3 C 91 % 999,8 hPa 0,0 l/m 0 min 0 min 16 W/m 9,7 km/h (2 Bft) 93,62 %
01.10.2019 18:54 16,7 C 15,6 C 18,3 C 91 % 999,8 hPa 0,0 l/m 0 min 0 min 15 W/m 6,4 km/h (2 Bft) 95,74 %
01.10.2019 18:56 16,7 C 15,6 C 18,3 C 91 % 999,8 hPa 0,0 l/m 0 min 0 min 14 W/m 16,1 km/h (3 Bft) 95,65 %
01.10.2019 18:58 16,7 C 15,6 C 18,3 C 91 % 999,9 hPa 0,0 l/m 0 min 0 min 14 W/m 16,1 km/h (3 Bft) 95,74 %
01.10.2019 19:00 16,7 C 15,6 C 18,3 C 91 % 999,9 hPa 0,0 l/m 0 min 0 min 13 W/m 6,4 km/h (2 Bft) 93,62 %
01.10.2019 19:02 16,7 C 15,6 C 18,3 C 91 % 999,9 hPa 0,0 l/m 0 min 0 min 12 W/m 12,9 km/h (3 Bft) 97,87 %
01.10.2019 19:04 16,7 C 15,6 C 18,3 C 91 % 999,9 hPa 0,0 l/m 0 min 0 min 12 W/m 19,3 km/h (3 Bft) 93,62 %
01.10.2019 19:06 16,7 C 15,6 C 18,3 C 91 % 999,9 hPa 0,0 l/m 0 min 0 min 12 W/m 12,9 km/h (3 Bft) 95,65 %
01.10.2019 19:08 16,7 C 15,6 C 18,3 C 91 % 999,9 hPa 0,0 l/m 0 min 0 min 11 W/m 12,9 km/h (3 Bft) 95,74 %
01.10.2019 19:10 16,7 C 15,6 C 18,3 C 91 % 999,9 hPa 0,0 l/m 0 min 0 min 10 W/m 16,1 km/h (3 Bft) 93,62 %
01.10.2019 19:12 16,6 C 15,6 C 18,3 C 92 % 999,9 hPa 0,0 l/m 0 min 0 min 7 W/m 16,1 km/h (3 Bft) 95,74 %
01.10.2019 19:14 16,6 C 15,6 C 18,3 C 92 % 999,9 hPa 0,0 l/m 0 min 0 min 5 W/m 6,4 km/h (2 Bft) 95,74 %
01.10.2019 19:16 16,6 C 15,6 C 18,3 C 92 % 999,9 hPa 0,0 l/m 0 min 0 min 1 W/m 16,1 km/h (3 Bft) 95,74 %
01.10.2019 19:18 16,6 C 15,6 C 18,3 C 92 % 999,9 hPa 0,0 l/m 0 min 0 min 0 W/m 16,1 km/h (3 Bft) 97,83 %
01.10.2019 19:20 16,6 C 15,6 C 18,3 C 92 % 999,9 hPa 0,0 l/m 0 min 0 min 0 W/m 12,9 km/h (3 Bft) 97,87 %
01.10.2019 19:22 16,6 C 15,6 C 18,3 C 92 % 999,9 hPa 0,0 l/m 0 min 0 min 0 W/m 12,9 km/h (3 Bft) 97,87 %
01.10.2019 19:24 16,5 C 15,6 C 18,3 C 92 % 999,9 hPa 0,0 l/m 0 min 0 min 0 W/m 3,2 km/h (1 Bft) 97,87 %
01.10.2019 19:26 16,5 C 15,0 C 18,3 C 92 % 999,9 hPa 0,0 l/m 0 min 0 min 0 W/m 12,9 km/h (3 Bft) 95,74 %
01.10.2019 19:28 16,5 C 15,0 C 18,3 C 92 % 999,9 hPa 0,0 l/m 0 min 0 min 0 W/m 12,9 km/h (3 Bft) 97,87 %
01.10.2019 19:30 16,4 C 15,0 C 18,3 C 92 % 999,9 hPa 0,0 l/m 0 min 0 min 0 W/m 6,4 km/h (2 Bft) 95,65 %
01.10.2019 19:32 16,4 C 15,0 C 18,3 C 92 % 999,9 hPa 0,0 l/m 0 min 0 min 0 W/m 12,9 km/h (3 Bft) 97,87 %
01.10.2019 19:34 16,4 C 15,0 C 18,3 C 92 % 999,9 hPa 0,0 l/m 0 min 0 min 0 W/m 6,4 km/h (2 Bft) 97,87 %
01.10.2019 19:36 16,4 C 15,0 C 18,3 C 92 % 999,9 hPa 0,0 l/m 0 min 0 min 0 W/m 6,4 km/h (2 Bft) 95,74 %
01.10.2019 19:38 16,4 C 15,0 C 18,3 C 92 % 1000,0 hPa 0,0 l/m 0 min 0 min 0 W/m 6,4 km/h (2 Bft) 97,87 %
01.10.2019 19:40 16,4 C 15,0 C 18,3 C 92 % 1000,0 hPa 0,0 l/m 0 min 0 min 0 W/m 12,9 km/h (3 Bft) 95,74 %
01.10.2019 19:42 16,3 C 15,0 C 18,3 C 92 % 1000,0 hPa 0,0 l/m 0 min 0 min 0 W/m 6,4 km/h (2 Bft) 95,65 %
01.10.2019 19:44 16,3 C 15,0 C 18,3 C 92 % 1000,0 hPa 0,0 l/m 0 min 0 min 0 W/m 6,4 km/h (2 Bft) 97,87 %
01.10.2019 19:46 16,3 C 14,4 C 18,3 C 92 % 999,9 hPa 0,0 l/m 0 min 0 min 0 W/m 12,9 km/h (3 Bft) 95,74 %
01.10.2019 19:48 16,3 C 14,4 C 18,3 C 92 % 999,9 hPa 0,0 l/m 0 min 0 min 0 W/m 6,4 km/h (2 Bft) 100,00 %
01.10.2019 19:50 16,2 C 14,4 C 18,3 C 92 % 999,9 hPa 0,0 l/m 0 min 0 min 0 W/m 12,9 km/h (3 Bft) 97,87 %
01.10.2019 19:52 16,2 C 14,4 C 18,3 C 92 % 1000,0 hPa 0,0 l/m 0 min 0 min 0 W/m 12,9 km/h (3 Bft) 97,87 %
01.10.2019 19:54 16,2 C 14,4 C 18,3 C 92 % 1000,0 hPa 0,0 l/m 0 min 0 min 0 W/m 12,9 km/h (3 Bft) 100,00 %
01.10.2019 19:56 16,1 C 14,4 C 18,3 C 92 % 1000,0 hPa 0,0 l/m 0 min 0 min 0 W/m 6,4 km/h (2 Bft) 100,00 %
01.10.2019 19:58 16,1 C 14,4 C 18,3 C 93 % 1000,1 hPa 0,0 l/m 0 min 0 min 0 W/m 6,4 km/h (2 Bft) 100,00 %
01.10.2019 20:00 16,1 C 14,4 C 18,3 C 93 % 1000,0 hPa 0,0 l/m 0 min 0 min 0 W/m 12,9 km/h (3 Bft) 100,00 %
01.10.2019 20:02 16,1 C 14,4 C 18,3 C 93 % 1000,0 hPa 0,0 l/m 0 min 0 min 0 W/m 12,9 km/h (3 Bft) 97,87 %
01.10.2019 20:04 16,0 C 14,4 C 18,3 C 93 % 1000,0 hPa 0,0 l/m 0 min 0 min 0 W/m 12,9 km/h (3 Bft) 100,00 %
01.10.2019 20:06 16,0 C 14,4 C 18,3 C 93 % 1000,0 hPa 0,0 l/m 0 min 0 min 0 W/m 3,2 km/h (1 Bft) 100,00 %
01.10.2019 20:08 16,0 C 14,4 C 18,3 C 93 % 1000,0 hPa 0,0 l/m 0 min 0 min 0 W/m 12,9 km/h (3 Bft) 100,00 %
01.10.2019 20:10 15,9 C 14,4 C 18,3 C 93 % 1000,0 hPa 0,0 l/m 0 min 0 min 0 W/m 6,4 km/h (2 Bft) 100,00 %
01.10.2019 20:12 15,9 C 14,4 C 18,3 C 93 % 1000,0 hPa 0,0 l/m 0 min 0 min 0 W/m 12,9 km/h (3 Bft) 100,00 %
01.10.2019 20:14 15,9 C 14,4 C 18,3 C 93 % 1000,0 hPa 0,0 l/m 0 min 0 min 0 W/m 9,7 km/h (2 Bft) 100,00 %
01.10.2019 20:16 15,9 C 14,4 C 18,3 C 93 % 1000,0 hPa 0,0 l/m 0 min 0 min 0 W/m 9,7 km/h (2 Bft) 100,00 %
01.10.2019 20:18 15,9 C 14,4 C 18,3 C 93 % 999,9 hPa 0,0 l/m 0 min 0 min 0 W/m 6,4 km/h (2 Bft) 100,00 %
01.10.2019 20:20 15,8 C 15,0 C 18,3 C 93 % 1000,0 hPa 0,0 l/m 0 min 0 min 0 W/m 9,7 km/h (2 Bft) 100,00 %
01.10.2019 20:22 15,8 C 15,0 C 18,3 C 93 % 1000,0 hPa 0,0 l/m 0 min 0 min 0 W/m 9,7 km/h (2 Bft) 100,00 %
01.10.2019 20:24 15,8 C 15,0 C 18,3 C 94 % 1000,1 hPa 0,0 l/m 0 min 0 min 0 W/m 12,9 km/h (3 Bft) 100,00 %
01.10.2019 20:26 15,8 C 15,0 C 18,3 C 94 % 1000,1 hPa 0,0 l/m 0 min 0 min 0 W/m 12,9 km/h (3 Bft) 100,00 %
01.10.2019 20:28 15,8 C 15,0 C 18,3 C 94 % 1000,0 hPa 0,0 l/m 0 min 0 min 0 W/m 9,7 km/h (2 Bft) 97,83 %
01.10.2019 20:30 15,8 C 15,0 C 18,3 C 94 % 1000,0 hPa 0,0 l/m 0 min 0 min 0 W/m 6,4 km/h (2 Bft) 97,87 %
01.10.2019 20:32 15,8 C 15,0 C 18,3 C 94 % 1000,0 hPa 0,0 l/m 0 min 0 min 0 W/m 12,9 km/h (3 Bft) 97,87 %
01.10.2019 20:34 15,8 C 15,0 C 18,3 C 94 % 1000,0 hPa 0,0 l/m 0 min 0 min 0 W/m 6,4 km/h (2 Bft) 97,87 %
01.10.2019 20:36 15,8 C 15,0 C 18,3 C 94 % 1000,0 hPa 0,0 l/m 0 min 0 min 0 W/m 6,4 km/h (2 Bft) 95,74 %
01.10.2019 20:38 15,7 C 15,0 C 18,3 C 94 % 999,9 hPa 0,0 l/m 0 min 0 min 0 W/m 6,4 km/h (2 Bft) 97,87 %
01.10.2019 20:40 15,8 C 15,0 C 18,3 C 94 % 999,9 hPa 0,0 l/m 0 min 0 min 0 W/m 9,7 km/h (2 Bft) 95,65 %
01.10.2019 20:42 15,7 C 15,0 C 18,3 C 94 % 1000,0 hPa 0,0 l/m 0 min 0 min 0 W/m 6,4 km/h (2 Bft) 97,87 %
01.10.2019 20:44 15,7 C 15,0 C 18,3 C 94 % 1000,0 hPa 0,0 l/m 0 min 0 min 0 W/m 6,4 km/h (2 Bft) 97,87 %
01.10.2019 20:46 15,7 C 15,0 C 18,3 C 94 % 999,9 hPa 0,0 l/m 0 min 0 min 0 W/m 6,4 km/h (2 Bft) 97,87 %
01.10.2019 20:48 15,7 C 15,0 C 18,3 C 94 % 999,9 hPa 0,0 l/m 0 min 0 min 0 W/m 9,7 km/h (2 Bft) 97,87 %
01.10.2019 20:50 15,7 C 15,0 C 18,3 C 94 % 999,9 hPa 0,0 l/m 0 min 0 min 0 W/m 6,4 km/h (2 Bft) 97,87 %
01.10.2019 20:52 15,7 C 15,0 C 18,3 C 94 % 999,8 hPa 0,0 l/m 0 min 0 min 0 W/m 9,7 km/h (2 Bft) 97,83 %
01.10.2019 20:54 15,7 C 15,0 C 18,3 C 94 % 999,8 hPa 0,0 l/m 0 min 0 min 0 W/m 6,4 km/h (2 Bft) 95,74 %
01.10.2019 20:56 15,7 C 15,0 C 18,3 C 94 % 999,8 hPa 0,0 l/m 0 min 0 min 0 W/m 6,4 km/h (2 Bft) 97,87 %
01.10.2019 20:58 15,7 C 15,0 C 18,3 C 94 % 999,8 hPa 0,0 l/m 0 min 0 min 0 W/m 6,4 km/h (2 Bft) 97,87 %
01.10.2019 21:00 15,7 C 15,0 C 18,3 C 94 % 999,8 hPa 0,0 l/m 0 min 0 min 0 W/m 0,0 km/h (0 Bft) 97,87 %
01.10.2019 21:02 15,7 C 15,0 C 18,3 C 94 % 999,8 hPa 0,0 l/m 0 min 0 min 0 W/m 12,9 km/h (3 Bft) 97,87 %
01.10.2019 21:04 15,7 C 15,0 C 18,3 C 94 % 999,8 hPa 0,0 l/m 0 min 0 min 0 W/m 12,9 km/h (3 Bft) 97,83 %
01.10.2019 21:06 15,7 C 15,0 C 18,3 C 95 % 999,8 hPa 0,0 l/m 0 min 0 min 0 W/m 6,4 km/h (2 Bft) 97,87 %
01.10.2019 21:08 15,7 C 15,0 C 18,3 C 95 % 999,8 hPa 0,0 l/m 0 min 0 min 0 W/m 6,4 km/h (2 Bft) 97,87 %
01.10.2019 21:10 15,7 C 15,0 C 18,3 C 95 % 999,8 hPa 0,0 l/m 0 min 0 min 0 W/m 6,4 km/h (2 Bft) 97,87 %
01.10.2019 21:12 15,7 C 15,0 C 18,3 C 95 % 999,9 hPa 0,0 l/m 0 min 0 min 0 W/m 6,4 km/h (2 Bft) 95,74 %
01.10.2019 21:14 15,7 C 15,0 C 18,3 C 95 % 999,9 hPa 0,0 l/m 0 min 2 min 0 W/m 6,4 km/h (2 Bft) 100,00 %
01.10.2019 21:16 15,7 C 14,4 C 18,3 C 95 % 999,9 hPa 0,0 l/m 0 min 2 min 0 W/m 6,4 km/h (2 Bft) 100,00 %
01.10.2019 21:18 15,7 C 14,4 C 18,3 C 95 % 999,8 hPa 0,0 l/m 0 min 2 min 0 W/m 12,9 km/h (3 Bft) 97,87 %
01.10.2019 21:20 15,7 C 13,9 C 18,3 C 95 % 999,8 hPa 0,0 l/m 0 min 2 min 0 W/m 12,9 km/h (3 Bft) 100,00 %
01.10.2019 21:22 15,7 C 13,9 C 18,3 C 95 % 999,9 hPa 0,0 l/m 0 min 2 min 0 W/m 6,4 km/h (2 Bft) 95,74 %
01.10.2019 21:24 15,7 C 13,9 C 18,3 C 95 % 999,9 hPa 0,0 l/m 0 min 0 min 0 W/m 6,4 km/h (2 Bft) 100,00 %
01.10.2019 21:26 15,7 C 13,9 C 18,3 C 95 % 999,9 hPa 0,0 l/m 0 min 2 min 0 W/m 6,4 km/h (2 Bft) 100,00 %
01.10.2019 21:28 15,7 C 13,9 C 18,3 C 95 % 999,8 hPa 0,0 l/m 0 min 2 min 0 W/m 16,1 km/h (3 Bft) 100,00 %
01.10.2019 21:30 15,7 C 13,9 C 18,3 C 95 % 999,8 hPa 0,0 l/m 0 min 0 min 0 W/m 12,9 km/h (3 Bft) 97,87 %
01.10.2019 21:32 15,7 C 13,9 C 18,3 C 95 % 999,8 hPa 0,0 l/m 0 min 0 min 0 W/m 12,9 km/h (3 Bft) 100,00 %
01.10.2019 21:34 15,7 C 13,9 C 18,3 C 95 % 999,8 hPa 0,0 l/m 0 min 0 min 0 W/m 12,9 km/h (3 Bft) 100,00 %
01.10.2019 21:36 15,7 C 13,9 C 18,3 C 95 % 999,8 hPa 0,0 l/m 0 min 0 min 0 W/m 16,1 km/h (3 Bft) 100,00 %
01.10.2019 21:38 15,7 C 13,9 C 18,3 C 95 % 999,8 hPa 0,0 l/m 0 min 0 min 0 W/m 12,9 km/h (3 Bft) 97,83 %
01.10.2019 21:40 15,7 C 13,9 C 18,3 C 95 % 999,8 hPa 0,0 l/m 0 min 0 min 0 W/m 12,9 km/h (3 Bft) 100,00 %
01.10.2019 21:42 15,6 C 13,9 C 18,3 C 95 % 999,8 hPa 0,0 l/m 0 min 0 min 0 W/m 12,9 km/h (3 Bft) 97,87 %
01.10.2019 21:44 15,6 C 13,9 C 18,3 C 95 % 999,9 hPa 0,0 l/m 0 min 0 min 0 W/m 6,4 km/h (2 Bft) 95,74 %
01.10.2019 21:46 15,6 C 13,9 C 18,3 C 95 % 999,9 hPa 0,0 l/m 0 min 0 min 0 W/m 16,1 km/h (3 Bft) 95,74 %
01.10.2019 21:48 15,6 C 13,9 C 18,3 C 95 % 999,8 hPa 0,0 l/m 0 min 0 min 0 W/m 16,1 km/h (3 Bft) 97,87 %
01.10.2019 21:50 15,6 C 14,4 C 18,3 C 95 % 999,8 hPa 0,0 l/m 0 min 0 min 0 W/m 12,9 km/h (3 Bft) 97,83 %
01.10.2019 21:52 15,6 C 14,4 C 18,3 C 95 % 999,8 hPa 0,0 l/m 0 min 0 min 0 W/m 6,4 km/h (2 Bft) 97,87 %
01.10.2019 21:54 15,6 C 13,9 C 18,3 C 95 % 999,8 hPa 0,0 l/m 0 min 0 min 0 W/m 6,4 km/h (2 Bft) 95,74 %
01.10.2019 21:56 15,5 C 14,4 C 18,3 C 95 % 999,7 hPa 0,0 l/m 0 min 0 min 0 W/m 12,9 km/h (3 Bft) 95,74 %
01.10.2019 21:58 15,5 C 14,4 C 18,3 C 95 % 999,7 hPa 0,0 l/m 0 min 0 min 0 W/m 16,1 km/h (3 Bft) 97,87 %
01.10.2019 22:00 15,5 C 14,4 C 18,3 C 95 % 999,7 hPa 0,0 l/m 0 min 0 min 0 W/m 12,9 km/h (3 Bft) 95,74 %
01.10.2019 22:02 15,5 C 14,4 C 18,3 C 95 % 999,8 hPa 0,0 l/m 0 min 0 min 0 W/m 12,9 km/h (3 Bft) 93,48 %
01.10.2019 22:04 15,5 C 14,4 C 18,3 C 95 % 999,8 hPa 0,0 l/m 0 min 0 min 0 W/m 12,9 km/h (3 Bft) 95,74 %
01.10.2019 22:06 15,4 C 14,4 C 18,3 C 95 % 999,8 hPa 0,0 l/m 0 min 0 min 0 W/m 6,4 km/h (2 Bft) 95,74 %
01.10.2019 22:08 15,4 C 14,4 C 18,3 C 95 % 999,7 hPa 0,0 l/m 0 min 0 min 0 W/m 6,4 km/h (2 Bft) 95,74 %
01.10.2019 22:10 15,4 C 14,4 C 18,3 C 95 % 999,8 hPa 0,0 l/m 0 min 0 min 0 W/m 6,4 km/h (2 Bft) 95,74 %
01.10.2019 22:12 15,4 C 14,4 C 18,3 C 96 % 999,7 hPa 0,0 l/m 0 min 0 min 0 W/m 16,1 km/h (3 Bft) 95,74 %
01.10.2019 22:14 15,4 C 14,4 C 18,3 C 96 % 999,8 hPa 0,0 l/m 0 min 0 min 0 W/m 12,9 km/h (3 Bft) 95,65 %
01.10.2019 22:16 15,4 C 14,4 C 18,3 C 96 % 999,8 hPa 0,2 l/m 0 min 0 min 0 W/m 12,9 km/h (3 Bft) 95,74 %
01.10.2019 22:18 15,4 C 14,4 C 18,3 C 96 % 999,8 hPa 0,0 l/m 0 min 0 min 0 W/m 6,4 km/h (2 Bft) 95,74 %
01.10.2019 22:20 15,4 C 14,4 C 18,3 C 96 % 999,8 hPa 0,0 l/m 0 min 0 min 0 W/m 6,4 km/h (2 Bft) 95,74 %
01.10.2019 22:22 15,4 C 14,4 C 18,3 C 96 % 999,8 hPa 0,0 l/m 0 min 0 min 0 W/m 6,4 km/h (2 Bft) 93,62 %
01.10.2019 22:24 15,4 C 14,4 C 18,3 C 96 % 999,8 hPa 0,0 l/m 0 min 2 min 0 W/m 6,4 km/h (2 Bft) 95,74 %
01.10.2019 22:26 15,4 C 14,4 C 18,3 C 96 % 999,8 hPa 0,0 l/m 0 min 2 min 0 W/m 12,9 km/h (3 Bft) 95,65 %
01.10.2019 22:28 15,4 C 14,4 C 18,3 C 96 % 999,8 hPa 0,0 l/m 0 min 0 min 0 W/m 6,4 km/h (2 Bft) 93,62 %
01.10.2019 22:30 15,4 C 14,4 C 18,3 C 96 % 999,8 hPa 0,0 l/m 0 min 0 min 0 W/m 3,2 km/h (1 Bft) 93,62 %
01.10.2019 22:32 15,4 C 14,4 C 18,3 C 96 % 999,8 hPa 0,0 l/m 0 min 0 min 0 W/m 3,2 km/h (1 Bft) 95,74 %
01.10.2019 22:34 15,4 C 14,4 C 18,3 C 96 % 999,8 hPa 0,0 l/m 0 min 0 min 0 W/m 3,2 km/h (1 Bft) 95,74 %
01.10.2019 22:36 15,4 C 14,4 C 18,3 C 96 % 999,8 hPa 0,0 l/m 0 min 0 min 0 W/m 3,2 km/h (1 Bft) 97,83 %
01.10.2019 22:38 15,4 C 14,4 C 18,3 C 96 % 999,8 hPa 0,0 l/m 0 min 0 min 0 W/m 6,4 km/h (2 Bft) 95,74 %
01.10.2019 22:40 15,4 C 14,4 C 18,3 C 96 % 999,8 hPa 0,0 l/m 0 min 0 min 0 W/m 3,2 km/h (1 Bft) 95,74 %
01.10.2019 22:42 15,4 C 14,4 C 18,3 C 96 % 999,7 hPa 0,0 l/m 0 min 0 min 0 W/m 3,2 km/h (1 Bft) 97,87 %
01.10.2019 22:44 15,4 C 14,4 C 18,3 C 96 % 999,8 hPa 0,0 l/m 0 min 0 min 0 W/m 0,0 km/h (0 Bft) 97,87 %
01.10.2019 22:46 15,4 C 14,4 C 18,3 C 96 % 999,8 hPa 0,0 l/m 0 min 0 min 0 W/m 3,2 km/h (1 Bft) 97,87 %
01.10.2019 22:48 15,4 C 13,9 C 18,3 C 96 % 999,9 hPa 0,0 l/m 0 min 2 min 0 W/m 6,4 km/h (2 Bft) 95,65 %
01.10.2019 22:50 15,4 C 13,9 C 18,3 C 96 % 999,9 hPa 0,4 l/m 0 min 2 min 0 W/m 35,4 km/h (5 Bft) 95,74 %
01.10.2019 22:52 15,4 C 13,9 C 18,3 C 96 % 999,8 hPa 0,6 l/m 0 min 2 min 0 W/m 38,6 km/h (5 Bft) 100,00 %
01.10.2019 22:54 15,4 C 13,9 C 18,3 C 96 % 999,9 hPa 0,0 l/m 0 min 2 min 0 W/m 9,7 km/h (2 Bft) 97,87 %
01.10.2019 22:56 15,4 C 13,9 C 18,3 C 97 % 999,8 hPa 0,2 l/m 0 min 2 min 0 W/m 19,3 km/h (3 Bft) 100,00 %
01.10.2019 22:58 15,5 C 13,9 C 18,3 C 97 % 999,8 hPa 0,4 l/m 0 min 2 min 0 W/m 19,3 km/h (3 Bft) 100,00 %
01.10.2019 23:00 15,5 C 13,9 C 18,3 C 97 % 999,9 hPa 0,2 l/m 0 min 2 min 0 W/m 22,5 km/h (4 Bft) 97,83 %
01.10.2019 23:02 15,5 C 13,9 C 18,3 C 97 % 999,8 hPa 0,2 l/m 0 min 2 min 0 W/m 19,3 km/h (3 Bft) 100,00 %
01.10.2019 23:04 15,5 C 13,9 C 18,3 C 97 % 999,8 hPa 0,0 l/m 0 min 2 min 0 W/m 16,1 km/h (3 Bft) 100,00 %
01.10.2019 23:06 15,5 C 13,9 C 18,3 C 97 % 999,8 hPa 0,0 l/m 0 min 2 min 0 W/m 16,1 km/h (3 Bft) 100,00 %
01.10.2019 23:08 15,5 C 13,9 C 18,3 C 97 % 999,7 hPa 0,0 l/m 0 min 0 min 0 W/m 9,7 km/h (2 Bft) 100,00 %
01.10.2019 23:10 15,5 C 13,9 C 18,3 C 97 % 999,7 hPa 0,0 l/m 0 min 0 min 0 W/m 16,1 km/h (3 Bft) 95,74 %
01.10.2019 23:12 15,5 C 13,9 C 18,3 C 97 % 999,7 hPa 0,0 l/m 0 min 0 min 0 W/m 16,1 km/h (3 Bft) 93,48 %
01.10.2019 23:14 15,5 C 13,9 C 18,3 C 97 % 999,8 hPa 0,0 l/m 0 min 0 min 0 W/m 12,9 km/h (3 Bft) 97,87 %
01.10.2019 23:16 15,5 C 13,9 C 18,3 C 97 % 999,7 hPa 0,0 l/m 0 min 0 min 0 W/m 6,4 km/h (2 Bft) 97,87 %
01.10.2019 23:18 15,5 C 13,9 C 18,3 C 97 % 999,7 hPa 0,0 l/m 0 min 0 min 0 W/m 6,4 km/h (2 Bft) 97,87 %
01.10.2019 23:20 15,5 C 13,9 C 18,3 C 97 % 999,8 hPa 0,0 l/m 0 min 0 min 0 W/m 6,4 km/h (2 Bft) 97,87 %
01.10.2019 23:22 15,4 C 13,9 C 18,3 C 97 % 999,8 hPa 0,0 l/m 0 min 0 min 0 W/m 12,9 km/h (3 Bft) 95,74 %
01.10.2019 23:24 15,4 C 13,9 C 18,3 C 97 % 999,8 hPa 0,0 l/m 0 min 0 min 0 W/m 6,4 km/h (2 Bft) 97,83 %
01.10.2019 23:26 15,4 C 13,9 C 18,3 C 97 % 999,8 hPa 0,0 l/m 0 min 0 min 0 W/m 6,4 km/h (2 Bft) 97,87 %
01.10.2019 23:28 15,4 C 13,9 C 18,3 C 97 % 999,8 hPa 0,0 l/m 0 min 0 min 0 W/m 0,0 km/h (0 Bft) 97,87 %
01.10.2019 23:30 15,4 C 13,9 C 18,3 C 97 % 999,8 hPa 0,0 l/m 0 min 0 min 0 W/m 3,2 km/h (1 Bft) 95,74 %
01.10.2019 23:32 15,4 C 13,9 C 18,3 C 97 % 999,8 hPa 0,0 l/m 0 min 0 min 0 W/m 3,2 km/h (1 Bft) 97,87 %
01.10.2019 23:34 15,4 C 13,9 C 18,3 C 97 % 999,9 hPa 0,0 l/m 0 min 0 min 0 W/m 0,0 km/h (0 Bft) 97,87 %
01.10.2019 23:36 15,3 C 13,9 C 18,3 C 97 % 999,9 hPa 0,0 l/m 0 min 0 min 0 W/m 3,2 km/h (1 Bft) 97,83 %
01.10.2019 23:38 15,3 C 13,9 C 18,3 C 97 % 999,8 hPa 0,0 l/m 0 min 0 min 0 W/m 3,2 km/h (1 Bft) 97,87 %
01.10.2019 23:40 15,3 C 13,9 C 18,3 C 97 % 999,8 hPa 0,0 l/m 0 min 0 min 0 W/m 9,7 km/h (2 Bft) 97,87 %
01.10.2019 23:42 15,3 C 13,9 C 18,3 C 97 % 999,8 hPa 0,0 l/m 0 min 0 min 0 W/m 6,4 km/h (2 Bft) 97,87 %
01.10.2019 23:44 15,3 C 13,9 C 18,3 C 97 % 999,8 hPa 0,0 l/m 0 min 0 min 0 W/m 12,9 km/h (3 Bft) 97,87 %
01.10.2019 23:46 15,3 C 13,9 C 18,3 C 97 % 999,8 hPa 0,0 l/m 0 min 0 min 0 W/m 3,2 km/h (1 Bft) 97,87 %
01.10.2019 23:48 15,3 C 13,9 C 18,3 C 97 % 999,8 hPa 0,0 l/m 0 min 0 min 0 W/m 6,4 km/h (2 Bft) 95,65 %
01.10.2019 23:50 15,3 C 13,9 C 18,3 C 97 % 999,8 hPa 0,0 l/m 0 min 0 min 0 W/m 6,4 km/h (2 Bft) 97,87 %
01.10.2019 23:52 15,3 C 13,9 C 18,3 C 97 % 999,8 hPa 0,0 l/m 0 min 0 min 0 W/m 12,9 km/h (3 Bft) 97,87 %
01.10.2019 23:54 15,3 C 13,9 C 18,3 C 97 % 999,8 hPa 0,0 l/m 0 min 2 min 0 W/m 6,4 km/h (2 Bft) 97,87 %
01.10.2019 23:56 15,3 C 13,9 C 18,3 C 97 % 999,8 hPa 0,0 l/m 0 min 2 min 0 W/m 16,1 km/h (3 Bft) 100,00 %
01.10.2019 23:58 15,3 C 13,9 C 18,3 C 97 % 999,9 hPa 0,2 l/m 0 min 2 min 0 W/m 29,0 km/h (5 Bft) 97,87 %
_ Min-Zeit 03:48 02:20 00:00 00:00 18:48 - - - - 21:00 11:28
Minimum _ 13,2 C 11,7 C 18,3 C 88 % 999,7 hPa - - - - 0,0 km/h (0 Bft) 74,47 %
_ Max-Zeit 17:14 16:12 00:00 05:36 00:00 09:28 12:22 12:08 13:04 14:06 01:06
Maximum _ 17,0 C 17,2 C 18,3 C 99 % 1010,1 hPa 2,0 l/m 2 min 4 min 330 W/m 41,8 km/h
S-SO (6 Bft)
100,00 %
Durchschnitt _ 15,3 C 14,4 C 18,3 C 95 % 1002,4 hPa #12,8 l/m #10 min. #6:08 h 94 W/m 15,9 km/h (3 Bft) 97,46 %
© 2019 W. Hausmann